| time (UTC) | temp F | wind direction | speed knots | gust knots | rain 1hr in | rain 24hr in | rain mn in | humidity % | barometer mb |
| 20260506025710 | 64 | 245 | 2.6 | 8.7 | 0.00 | 0.05 | 0.00 | 50 | 1011.9 |
| 20260506025644 | 64 | 272 | 2.6 | 8.7 | 0.00 | 0.05 | 0.00 | 50 | 1011.9 |
| 20260506025609 | 64 | 274 | 2.6 | 8.7 | 0.00 | 0.05 | 0.00 | 50 | 1011.9 |
| 20260506025510 | 64 | 269 | 2.6 | 8.7 | 0.00 | 0.06 | 0.00 | 50 | 1011.9 |
| 20260506025416 | 64 | 281 | 2.6 | 8.7 | 0.00 | 0.07 | 0.00 | 50 | 1011.9 |
| 20260506025409 | 64 | 263 | 2.6 | 8.7 | 0.00 | 0.06 | 0.00 | 50 | 1011.9 |
| 20260506025307 | 64 | 109 | 2.6 | 8.7 | 0.00 | 0.07 | 0.00 | 50 | 1011.9 |
| 20260506025251 | 64 | 278 | 2.6 | 8.7 | 0.00 | 0.07 | 0.00 | 50 | 1011.9 |
| 20260506025105 | 64 | 309 | 2.6 | 8.7 | 0.00 | 0.07 | 0.00 | 50 | 1011.9 |
| 20260506025004 | 64 | 193 | 0.9 | 7.8 | 0.00 | 0.07 | 0.00 | 50 | 1011.9 |
| 20260506024915 | 64 | 334 | 0.9 | 7.8 | 0.00 | 0.07 | 0.00 | 49 | 1011.6 |
| 20260506024904 | 64 | 244 | 0.9 | 7.8 | 0.00 | 0.07 | 0.00 | 50 | 1011.9 |
| 20260506024803 | 64 | 261 | 0.9 | 7.8 | 0.00 | 0.07 | 0.00 | 50 | 1011.6 |
| 20260506024750 | 64 | 191 | 0.9 | 7.8 | 0.00 | 0.07 | 0.00 | 50 | 1011.6 |
| 20260506024602 | 64 | 255 | 0.9 | 5.2 | 0.00 | 0.07 | 0.00 | 50 | 1011.6 |
| 20260506024501 | 64 | 261 | 0.9 | 5.2 | 0.00 | 0.07 | 0.00 | 50 | 1011.6 |
| 20260506024401 | 64 | 291 | 0.9 | 5.2 | 0.00 | 0.07 | 0.00 | 49 | 1011.6 |
| 20260506024301 | 64 | 64 | 0.9 | 5.2 | 0.00 | 0.07 | 0.00 | 49 | 1011.6 |
| 20260506024212 | 64 | 250 | 0.9 | 4.3 | 0.00 | 0.07 | 0.00 | 49 | 1011.6 |
| 20260506024208 | 64 | 262 | 0.9 | 4.3 | 0.00 | 0.07 | 0.00 | 49 | 1011.6 |
| 20260506024203 | 64 | 266 | 0.9 | 4.3 | 0.00 | 0.07 | 0.00 | 49 | 1011.6 |
| 20260506023958 | 64 | 234 | 0.0 | 3.5 | 0.00 | 0.07 | 0.00 | 49 | 1011.6 |
| 20260506023849 | 64 | 234 | 0.0 | 3.5 | 0.00 | 0.07 | 0.00 | 49 | 1011.6 |
| 20260506023749 | 64 | 233 | 0.0 | 3.5 | 0.00 | 0.07 | 0.00 | 49 | 1011.6 |
| 20260506023648 | 64 | 233 | 0.0 | 3.5 | 0.00 | 0.07 | 0.00 | 49 | 1011.6 |
| 20260506023642 | 64 | 232 | 0.0 | 3.5 | 0.00 | 0.07 | 0.00 | 49 | 1011.6 |
| 20260506023549 | 64 | 267 | 0.0 | 3.5 | 0.00 | 0.07 | 0.00 | 49 | 1011.6 |
| 20260506023446 | 65 | 304 | 0.0 | 3.5 | 0.00 | 0.07 | 0.00 | 48 | 1011.6 |
| 20260506023356 | 65 | 294 | 0.0 | 0.0 | 0.00 | 0.07 | 0.00 | 50 | 1011.5 |
| 20260506023352 | 65 | 233 | 0.0 | 2.6 | 0.00 | 0.07 | 0.00 | 49 | 1011.6 |
| 20260506023143 | 65 | 294 | 0.0 | 0.0 | 0.00 | 0.07 | 0.00 | 49 | 1011.5 |
| 20260506023028 | 65 | 294 | 0.0 | 0.0 | 0.00 | 0.07 | 0.00 | 50 | 1011.5 |
| 20260506022909 | 65 | 294 | 0.0 | 0.0 | 0.00 | 0.07 | 0.00 | 48 | 1011.5 |
| 20260506022808 | 65 | 294 | 0.0 | 0.0 | 0.00 | 0.07 | 0.00 | 48 | 1011.5 |
| 20260506022659 | 65 | 294 | 0.0 | 0.0 | 0.00 | 0.07 | 0.00 | 48 | 1011.5 |
| 20260506022614 | 65 | 294 | 0.0 | 0.0 | 0.00 | 0.07 | 0.00 | 48 | 1011.5 |
| 20260506022523 | 65 | 294 | 0.0 | 0.0 | 0.00 | 0.07 | 0.00 | 48 | 1011.5 |
| 20260506022422 | 66 | 294 | 0.0 | 0.0 | 0.00 | 0.07 | 0.00 | 47 | 1011.5 |
| 20260506022259 | 66 | 294 | 0.0 | 0.0 | 0.00 | 0.07 | 0.00 | 46 | 1011.5 |
| 20260506022255 | 66 | 294 | 0.0 | 0.0 | 0.00 | 0.07 | 0.00 | 46 | 1011.5 |
| 20260506022251 | 66 | 294 | 0.0 | 0.0 | 0.00 | 0.07 | 0.00 | 47 | 1011.5 |
| 20260506022140 | 66 | 294 | 0.0 | 0.0 | 0.00 | 0.07 | 0.00 | 46 | 1011.5 |
| 20260506021938 | 66 | 294 | 0.9 | 0.0 | 0.00 | 0.07 | 0.00 | 45 | 1011.4 |
| 20260506021934 | 66 | 294 | 0.9 | 0.0 | 0.00 | 0.07 | 0.00 | 46 | 1011.5 |
| 20260506021726 | 66 | 294 | 0.9 | 0.0 | 0.00 | 0.07 | 0.00 | 45 | 1011.4 |
| 20260506021618 | 67 | 294 | 0.9 | 0.0 | 0.00 | 0.07 | 0.00 | 46 | 1011.4 |
| 20260506021559 | 67 | 294 | 0.9 | 0.0 | 0.00 | 0.07 | 0.00 | 45 | 1011.4 |
| 20260506021514 | 67 | 294 | 0.9 | 0.0 | 0.00 | 0.07 | 0.00 | 45 | 1011.4 |
| 20260506021411 | 67 | 294 | 0.9 | 0.0 | 0.00 | 0.07 | 0.00 | 44 | 1011.4 |
| 20260506021310 | 67 | 294 | 0.9 | 1.7 | 0.00 | 0.07 | 0.00 | 44 | 1011.4 |
| 20260506021156 | 67 | 294 | 0.9 | 3.5 | 0.00 | 0.07 | 0.00 | 43 | 1011.4 |
| 20260506021038 | 67 | 294 | 0.9 | 3.5 | 0.00 | 0.07 | 0.00 | 42 | 1011.4 |
| 20260506020939 | 67 | 294 | 1.7 | 3.5 | 0.00 | 0.07 | 0.00 | 43 | 1011.4 |
| 20260506020836 | 67 | 294 | 1.7 | 3.5 | 0.00 | 0.07 | 0.00 | 43 | 1011.4 |
| 20260506020731 | 67 | 294 | 1.7 | 3.5 | 0.00 | 0.07 | 0.00 | 42 | 1011.4 |
| 20260506020617 | 67 | 294 | 1.7 | 3.5 | 0.00 | 0.07 | 0.00 | 41 | 1011.4 |
| 20260506020537 | 67 | 294 | 1.7 | 3.5 | 0.00 | 0.07 | 0.00 | 42 | 1011.4 |
| 20260506020518 | 67 | 294 | 1.7 | 3.5 | 0.00 | 0.07 | 0.00 | 41 | 1011.4 |
| 20260506020416 | 67 | 294 | 1.7 | 3.5 | 0.00 | 0.07 | 0.00 | 41 | 1011.4 |
| 20260506020314 | 67 | 294 | 1.7 | 3.5 | 0.00 | 0.07 | 0.00 | 40 | 1011.3 |
| 20260506020208 | 67 | 294 | 1.7 | 4.3 | 0.00 | 0.07 | 0.00 | 40 | 1011.3 |
| 20260506020109 | 67 | 261 | 1.7 | 4.3 | 0.00 | 0.07 | 0.00 | 41 | 1011.3 |
| 20260506020037 | 67 | 261 | 1.7 | 4.3 | 0.00 | 0.07 | 0.00 | 41 | 1011.3 |
| 20260506020005 | 67 | 261 | 0.9 | 4.3 | 0.00 | 0.07 | 0.00 | 40 | 1011.3 |
| 20260506015906 | 68 | 261 | 0.9 | 4.3 | 0.00 | 0.08 | 0.00 | 41 | 1011.3 |
| 20260506015806 | 68 | 259 | 0.9 | 4.3 | 0.00 | 0.08 | 0.00 | 41 | 1011.3 |
| 20260506015701 | 68 | 260 | 0.9 | 4.3 | 0.00 | 0.08 | 0.00 | 40 | 1011.3 |
| 20260506015532 | 68 | 194 | 0.9 | 4.3 | 0.00 | 0.08 | 0.00 | 41 | 1011.3 |
| 20260506015456 | 68 | 193 | 0.9 | 4.3 | 0.00 | 0.08 | 0.00 | 39 | 1011.3 |
| 20260506015354 | 68 | 306 | 0.9 | 4.3 | 0.00 | 0.08 | 0.00 | 40 | 1011.3 |
| 20260506015252 | 68 | 306 | 0.9 | 4.3 | 0.00 | 0.08 | 0.00 | 39 | 1011.3 |
| 20260506015149 | 68 | 286 | 0.9 | 3.5 | 0.00 | 0.08 | 0.00 | 41 | 1011.3 |
| 20260506015054 | 68 | 263 | 0.9 | 2.6 | 0.00 | 0.08 | 0.00 | 40 | 1011.3 |
| 20260506015050 | 68 | 263 | 0.9 | 2.6 | 0.00 | 0.08 | 0.00 | 41 | 1011.3 |
| 20260506015045 | 68 | 263 | 0.9 | 2.6 | 0.00 | 0.08 | 0.00 | 40 | 1011.3 |
| 20260506014838 | 68 | 263 | 0.9 | 2.6 | 0.00 | 0.08 | 0.00 | 40 | 1011.3 |
| 20260506014738 | 68 | 263 | 0.9 | 2.6 | 0.00 | 0.08 | 0.00 | 39 | 1011.3 |
| 20260506014734 | 68 | 263 | 0.9 | 2.6 | 0.00 | 0.08 | 0.00 | 39 | 1011.3 |
| 20260506014528 | 69 | 263 | 0.9 | 2.6 | 0.00 | 0.08 | 0.00 | 40 | 1011.3 |
| 20260506014522 | 69 | 263 | 0.9 | 2.6 | 0.00 | 0.08 | 0.00 | 39 | 1011.3 |
| 20260506014442 | 69 | 256 | 0.9 | 4.3 | 0.00 | 0.08 | 0.00 | 39 | 1011.3 |
| 20260506014438 | 69 | 257 | 0.9 | 4.3 | 0.00 | 0.08 | 0.00 | 40 | 1011.3 |
| 20260506014434 | 69 | 257 | 0.9 | 2.6 | 0.00 | 0.08 | 0.00 | 39 | 1011.3 |
| 20260506014119 | 69 | 289 | 0.9 | 4.3 | 0.00 | 0.08 | 0.00 | 39 | 1011.3 |
| 20260506014016 | 69 | 315 | 0.9 | 4.3 | 0.00 | 0.08 | 0.00 | 39 | 1011.3 |
| 20260506013914 | 69 | 315 | 1.7 | 4.3 | 0.00 | 0.08 | 0.00 | 39 | 1011.3 |
| 20260506013749 | 69 | 315 | 1.7 | 4.3 | 0.00 | 0.08 | 0.00 | 40 | 1011.3 |
| 20260506013641 | 69 | 315 | 1.7 | 4.3 | 0.00 | 0.08 | 0.00 | 38 | 1011.3 |
| 20260506013522 | 69 | 315 | 1.7 | 4.3 | 0.00 | 0.09 | 0.00 | 39 | 1011.3 |
| 20260506013426 | 69 | 315 | 1.7 | 4.3 | 0.00 | 0.09 | 0.00 | 38 | 1011.3 |
| 20260506013322 | 69 | 259 | 1.7 | 3.5 | 0.00 | 0.09 | 0.00 | 38 | 1011.5 |
| 20260506013221 | 69 | 259 | 1.7 | 3.5 | 0.00 | 0.09 | 0.00 | 38 | 1011.5 |
| 20260506013115 | 69 | 290 | 1.7 | 3.5 | 0.00 | 0.10 | 0.00 | 38 | 1011.5 |
| 20260506013027 | 70 | 291 | 1.7 | 3.5 | 0.00 | 0.12 | 0.00 | 37 | 1011.5 |
| 20260506013023 | 70 | 270 | 1.7 | 3.5 | 0.00 | 0.12 | 0.00 | 38 | 1011.5 |
| 20260506013014 | 69 | 290 | 1.7 | 3.5 | 0.00 | 0.11 | 0.00 | 37 | 1011.5 |
| 20260506012703 | 70 | 190 | 1.7 | 3.5 | 0.00 | 0.12 | 0.00 | 38 | 1011.5 |
| 20260506012603 | 70 | 190 | 1.7 | 3.5 | 0.00 | 0.12 | 0.00 | 38 | 1011.5 |
| 20260506012514 | 70 | 185 | 1.7 | 3.5 | 0.00 | 0.12 | 0.00 | 38 | 1011.5 |
| 20260506012458 | 70 | 183 | 1.7 | 3.5 | 0.00 | 0.12 | 0.00 | 38 | 1011.5 |
| 20260506012356 | 70 | 155 | 1.7 | 3.5 | 0.00 | 0.13 | 0.00 | 37 | 1011.5 |
| 20260506012351 | 70 | 183 | 1.7 | 3.5 | 0.00 | 0.13 | 0.00 | 38 | 1011.5 |
| 20260506012146 | 70 | 146 | 1.7 | 3.5 | 0.00 | 0.14 | 0.00 | 36 | 1011.5 |
| 20260506012052 | 70 | 208 | 1.7 | 3.5 | 0.00 | 0.14 | 0.00 | 38 | 1011.5 |
| 20260506012048 | 70 | 153 | 1.7 | 3.5 | 0.00 | 0.14 | 0.00 | 37 | 1011.5 |
| 20260506012042 | 70 | 153 | 1.7 | 3.5 | 0.00 | 0.14 | 0.00 | 38 | 1011.5 |
| 20260506011839 | 70 | 208 | 1.7 | 3.5 | 0.00 | 0.15 | 0.00 | 37 | 1011.5 |
| 20260506011746 | 70 | 208 | 1.7 | 3.5 | 0.00 | 0.15 | 0.00 | 37 | 1011.4 |
| 20260506011742 | 70 | 208 | 1.7 | 3.5 | 0.00 | 0.15 | 0.00 | 37 | 1011.4 |
| 20260506011533 | 70 | 208 | 1.7 | 3.5 | 0.00 | 0.16 | 0.00 | 37 | 1011.4 |
| 20260506011515 | 70 | 208 | 1.7 | 4.3 | 0.00 | 0.16 | 0.00 | 37 | 1011.4 |
| 20260506011419 | 70 | 239 | 1.7 | 4.3 | 0.00 | 0.16 | 0.00 | 36 | 1011.4 |
| 20260506011319 | 71 | 239 | 1.7 | 4.3 | 0.00 | 0.16 | 0.00 | 36 | 1011.4 |
| 20260506011228 | 71 | 251 | 1.7 | 4.3 | 0.00 | 0.17 | 0.00 | 36 | 1011.4 |
| 20260506011223 | 71 | 221 | 1.7 | 4.3 | 0.00 | 0.16 | 0.00 | 36 | 1011.4 |
| 20260506011013 | 71 | 266 | 1.7 | 4.3 | 0.00 | 0.17 | 0.00 | 37 | 1011.4 |
| 20260506010911 | 71 | 100 | 1.7 | 4.3 | 0.00 | 0.17 | 0.00 | 36 | 1011.4 |
| 20260506010807 | 71 | 271 | 1.7 | 4.3 | 0.00 | 0.17 | 0.00 | 36 | 1011.4 |
| 20260506010705 | 71 | 271 | 1.7 | 4.3 | 0.00 | 0.17 | 0.00 | 36 | 1011.4 |
| 20260506010606 | 71 | 274 | 1.7 | 4.3 | 0.00 | 0.18 | 0.00 | 36 | 1011.4 |
| 20260506010507 | 71 | 233 | 1.7 | 4.3 | 0.00 | 0.18 | 0.00 | 36 | 1011.4 |
| 20260506010458 | 71 | 232 | 1.7 | 4.3 | 0.00 | 0.18 | 0.00 | 36 | 1011.4 |
| 20260506010341 | 71 | 231 | 1.7 | 4.3 | 0.00 | 0.18 | 0.00 | 37 | 1011.4 |
| 20260506010242 | 71 | 232 | 1.7 | 4.3 | 0.00 | 0.18 | 0.00 | 36 | 1011.4 |
| 20260506010237 | 71 | 241 | 1.7 | 4.3 | 0.00 | 0.18 | 0.00 | 36 | 1011.4 |
| 20260506010029 | 71 | 293 | 1.7 | 4.3 | 0.00 | 0.18 | 0.00 | 35 | 1011.4 |
| 20260506010007 | 71 | 264 | 2.6 | 3.5 | 0.00 | 0.18 | 0.00 | 35 | 1011.4 |
| 20260506005929 | 71 | 77 | 2.6 | 3.5 | 0.00 | 0.18 | 0.00 | 36 | 1011.4 |
| 20260506005828 | 71 | 144 | 2.6 | 3.5 | 0.00 | 0.18 | 0.00 | 36 | 1011.4 |
| 20260506005729 | 71 | 199 | 2.6 | 5.2 | 0.00 | 0.18 | 0.00 | 36 | 1011.4 |
| 20260506005634 | 71 | 167 | 2.6 | 5.2 | 0.00 | 0.19 | 0.00 | 36 | 1011.4 |
| 20260506005630 | 71 | 176 | 2.6 | 5.2 | 0.00 | 0.18 | 0.00 | 36 | 1011.4 |
| 20260506005507 | 71 | 164 | 2.6 | 5.2 | 0.00 | 0.19 | 0.00 | 36 | 1011.4 |
| 20260506005423 | 71 | 173 | 2.6 | 5.2 | 0.00 | 0.20 | 0.00 | 35 | 1011.4 |
| 20260506005319 | 71 | 190 | 2.6 | 5.2 | 0.00 | 0.20 | 0.00 | 37 | 1011.4 |
| 20260506005218 | 71 | 190 | 2.6 | 5.2 | 0.00 | 0.20 | 0.00 | 36 | 1011.4 |
| 20260506005116 | 71 | 116 | 2.6 | 5.2 | 0.00 | 0.21 | 0.00 | 36 | 1011.4 |
| 20260506005016 | 71 | 99 | 2.6 | 5.2 | 0.00 | 0.21 | 0.00 | 36 | 1011.4 |
| 20260506005007 | 71 | 99 | 3.5 | 5.2 | 0.00 | 0.21 | 0.00 | 36 | 1011.4 |
| 20260506004915 | 71 | 136 | 3.5 | 5.2 | 0.00 | 0.21 | 0.00 | 37 | 1011.4 |
| 20260506004835 | 71 | 61 | 3.5 | 5.2 | 0.00 | 0.22 | 0.00 | 36 | 1011.5 |
| 20260506004831 | 71 | 30 | 3.5 | 5.2 | 0.00 | 0.23 | 0.00 | 37 | 1011.5 |
| 20260506004827 | 71 | 275 | 3.5 | 5.2 | 0.00 | 0.22 | 0.00 | 36 | 1011.5 |
| 20260506004507 | 71 | 232 | 3.5 | 5.2 | 0.00 | 0.23 | 0.00 | 37 | 1011.5 |
| 20260506004437 | 71 | 250 | 3.5 | 5.2 | 0.00 | 0.23 | 0.00 | 36 | 1011.5 |
| 20260506004433 | 71 | 250 | 3.5 | 5.2 | 0.00 | 0.23 | 0.00 | 36 | 1011.5 |
| 20260506004429 | 71 | 282 | 3.5 | 6.1 | 0.00 | 0.24 | 0.00 | 36 | 1011.5 |
| 20260506004425 | 71 | 233 | 3.5 | 5.2 | 0.00 | 0.23 | 0.00 | 36 | 1011.5 |
| 20260506004007 | 71 | 315 | 2.6 | 6.1 | 0.00 | 0.24 | 0.00 | 36 | 1011.5 |
| 20260506003903 | 71 | 268 | 2.6 | 7.8 | 0.00 | 0.24 | 0.00 | 35 | 1011.5 |
| 20260506003804 | 71 | 288 | 2.6 | 7.8 | 0.00 | 0.24 | 0.00 | 35 | 1011.5 |
| 20260506003711 | 71 | 343 | 2.6 | 7.8 | 0.00 | 0.24 | 0.00 | 35 | 1011.5 |
| 20260506003707 | 71 | 318 | 2.6 | 7.8 | 0.00 | 0.24 | 0.00 | 36 | 1011.5 |
| 20260506003520 | 71 | 309 | 2.6 | 7.8 | 0.00 | 0.24 | 0.00 | 35 | 1011.5 |
| 20260506003516 | 71 | 263 | 2.6 | 7.8 | 0.00 | 0.24 | 0.00 | 35 | 1011.4 |
| 20260506003511 | 71 | 344 | 2.6 | 7.8 | 0.00 | 0.24 | 0.00 | 35 | 1011.5 |
| 20260506003507 | 71 | 344 | 2.6 | 7.8 | 0.00 | 0.24 | 0.00 | 35 | 1011.5 |
| 20260506003156 | 71 | 230 | 2.6 | 7.8 | 0.00 | 0.24 | 0.00 | 35 | 1011.4 |
| 20260506003056 | 71 | 263 | 2.6 | 7.8 | 0.00 | 0.24 | 0.00 | 35 | 1011.4 |
| 20260506003004 | 71 | 258 | 4.3 | 7.8 | 0.00 | 0.24 | 0.00 | 35 | 1011.4 |
| 20260506002955 | 71 | 257 | 4.3 | 7.8 | 0.00 | 0.24 | 0.00 | 35 | 1011.4 |
| 20260506002903 | 71 | 251 | 4.3 | 6.1 | 0.00 | 0.24 | 0.00 | 36 | 1011.4 |
| 20260506002859 | 71 | 272 | 4.3 | 6.1 | 0.00 | 0.24 | 0.00 | 36 | 1011.4 |
| 20260506002651 | 71 | 238 | 4.3 | 6.1 | 0.00 | 0.24 | 0.00 | 37 | 1011.4 |
| 20260506002544 | 71 | 244 | 4.3 | 6.1 | 0.00 | 0.24 | 0.00 | 37 | 1011.4 |
| 20260506002504 | 71 | 223 | 4.3 | 9.6 | 0.00 | 0.24 | 0.00 | 37 | 1011.4 |
| 20260506002500 | 71 | 260 | 4.3 | 9.6 | 0.00 | 0.24 | 0.00 | 37 | 1011.4 |
| 20260506002456 | 71 | 198 | 4.3 | 9.6 | 0.00 | 0.24 | 0.00 | 36 | 1011.4 |
| 20260506002452 | 71 | 145 | 4.3 | 9.6 | 0.00 | 0.24 | 0.00 | 36 | 1011.4 |
| 20260506002237 | 71 | 32 | 4.3 | 9.6 | 0.00 | 0.24 | 0.00 | 36 | 1011.4 |
| 20260506002031 | 71 | 238 | 4.3 | 9.6 | 0.00 | 0.24 | 0.00 | 36 | 1011.4 |
| 20260506002004 | 71 | 312 | 3.5 | 9.6 | 0.00 | 0.24 | 0.00 | 36 | 1011.4 |
| 20260506002000 | 71 | 282 | 3.5 | 9.6 | 0.00 | 0.24 | 0.00 | 37 | 1011.4 |
| 20260506001955 | 71 | 169 | 3.5 | 9.6 | 0.00 | 0.24 | 0.00 | 37 | 1011.4 |
| 20260506001951 | 71 | 250 | 3.5 | 9.6 | 0.00 | 0.24 | 0.00 | 36 | 1011.4 |
| 20260506001947 | 71 | 122 | 3.5 | 9.6 | 0.00 | 0.24 | 0.00 | 36 | 1011.4 |
| 20260506001543 | 71 | 246 | 3.5 | 8.7 | 0.00 | 0.24 | 0.00 | 36 | 1011.4 |
| 20260506001539 | 71 | 321 | 3.5 | 9.6 | 0.00 | 0.24 | 0.00 | 36 | 1011.4 |
| 20260506001534 | 71 | 263 | 3.5 | 8.7 | 0.00 | 0.24 | 0.00 | 36 | 1011.4 |
| 20260506001329 | 71 | 267 | 3.5 | 8.7 | 0.00 | 0.24 | 0.00 | 36 | 1011.4 |
| 20260506001233 | 72 | 250 | 2.6 | 9.6 | 0.00 | 0.24 | 0.00 | 35 | 1011.4 |
| 20260506001228 | 72 | 321 | 3.5 | 8.7 | 0.00 | 0.24 | 0.00 | 35 | 1011.4 |
| 20260506001128 | 72 | 282 | 3.5 | 8.7 | 0.00 | 0.24 | 0.00 | 35 | 1011.4 |
| 20260506001107 | 72 | 280 | 3.5 | 9.6 | 0.00 | 0.24 | 0.00 | 36 | 1011.4 |
| 20260506000926 | 72 | 236 | 2.6 | 9.6 | 0.00 | 0.24 | 0.00 | 35 | 1011.4 |
| 20260506000826 | 72 | 257 | 2.6 | 9.6 | 0.00 | 0.24 | 0.00 | 36 | 1011.4 |
| 20260506000726 | 72 | 300 | 2.6 | 9.6 | 0.00 | 0.24 | 0.00 | 35 | 1011.4 |
| 20260506000634 | 72 | 286 | 2.6 | 9.6 | 0.00 | 0.24 | 0.00 | 35 | 1011.4 |
| 20260506000630 | 72 | 256 | 2.6 | 9.6 | 0.00 | 0.24 | 0.00 | 35 | 1011.4 |
| 20260506000502 | 72 | 337 | 2.6 | 9.6 | 0.00 | 0.24 | 0.00 | 35 | 1011.4 |
| 20260506000423 | 72 | 285 | 2.6 | 9.6 | 0.00 | 0.24 | 0.00 | 35 | 1011.4 |
| 20260506000323 | 72 | 106 | 2.6 | 9.6 | 0.00 | 0.24 | 0.00 | 35 | 1011.4 |
| 20260506000222 | 72 | 303 | 2.6 | 9.6 | 0.00 | 0.24 | 0.00 | 35 | 1011.4 |
| 20260506000130 | 72 | 241 | 2.6 | 8.7 | 0.00 | 0.24 | 0.00 | 36 | 1011.4 |
| 20260506000126 | 72 | 277 | 2.6 | 9.6 | 0.00 | 0.24 | 0.00 | 35 | 1011.4 |
| 20260506000002 | 72 | 160 | 1.7 | 7.8 | 0.00 | 0.24 | 0.00 | 36 | 1011.4 |
| 20260505235921 | 72 | 257 | 1.7 | 7.8 | 0.00 | 0.24 | 0.00 | 35 | 1011.4 |
| 20260505235821 | 72 | 297 | 1.7 | 7.8 | 0.00 | 0.24 | 0.00 | 35 | 1011.4 |
| 20260505235732 | 72 | 328 | 1.7 | 7.8 | 0.00 | 0.24 | 0.00 | 35 | 1011.4 |
| 20260505235721 | 72 | 264 | 1.7 | 7.8 | 0.00 | 0.24 | 0.00 | 35 | 1011.4 |
| 20260505235621 | 72 | 267 | 1.7 | 7.8 | 0.00 | 0.24 | 0.00 | 35 | 1011.4 |
| 20260505235607 | 72 | 328 | 1.7 | 7.8 | 0.00 | 0.24 | 0.00 | 35 | 1011.4 |
| 20260505235416 | 72 | 274 | 1.7 | 7.8 | 0.00 | 0.24 | 0.00 | 35 | 1011.4 |
| 20260505235316 | 72 | 314 | 1.7 | 4.3 | 0.00 | 0.24 | 0.00 | 36 | 1011.4 |
| 20260505235224 | 72 | 165 | 1.7 | 6.1 | 0.00 | 0.24 | 0.00 | 37 | 1011.4 |
| 20260505235220 | 72 | 304 | 1.7 | 4.3 | 0.00 | 0.24 | 0.00 | 36 | 1011.4 |
| 20260505235005 | 71 | 154 | 3.5 | 6.1 | 0.00 | 0.24 | 0.00 | 37 | 1011.4 |
| 20260505234959 | 71 | 154 | 3.5 | 6.1 | 0.00 | 0.24 | 0.00 | 37 | 1011.4 |
| 20260505234903 | 71 | 154 | 3.5 | 6.1 | 0.00 | 0.24 | 0.00 | 37 | 1011.4 |
| 20260505234801 | 71 | 154 | 3.5 | 6.1 | 0.00 | 0.24 | 0.00 | 37 | 1011.5 |
| 20260505234646 | 71 | 136 | 3.5 | 6.1 | 0.00 | 0.24 | 0.00 | 37 | 1011.5 |
| 20260505234543 | 71 | 136 | 3.5 | 6.1 | 0.00 | 0.24 | 0.00 | 36 | 1011.5 |
| 20260505234500 | 71 | 135 | 3.5 | 7.0 | 0.00 | 0.24 | 0.00 | 36 | 1011.5 |
| 20260505234444 | 71 | 134 | 3.5 | 7.8 | 0.00 | 0.24 | 0.00 | 36 | 1011.5 |
| 20260505234350 | 71 | 143 | 3.5 | 7.8 | 0.00 | 0.24 | 0.00 | 36 | 1011.5 |
| 20260505234346 | 71 | 177 | 3.5 | 7.8 | 0.00 | 0.24 | 0.00 | 36 | 1011.5 |
| 20260505234141 | 71 | 156 | 3.5 | 7.8 | 0.00 | 0.24 | 0.00 | 37 | 1011.5 |
| 20260505234041 | 71 | 204 | 3.5 | 7.8 | 0.00 | 0.24 | 0.00 | 37 | 1011.5 |
| 20260505234000 | 71 | 213 | 2.6 | 7.8 | 0.00 | 0.24 | 0.00 | 37 | 1011.5 |
| 20260505233941 | 71 | 236 | 2.6 | 7.8 | 0.00 | 0.24 | 0.00 | 37 | 1011.5 |
| 20260505233840 | 71 | 238 | 2.6 | 7.8 | 0.00 | 0.24 | 0.00 | 37 | 1011.5 |
| 20260505233748 | 71 | 314 | 2.6 | 7.8 | 0.00 | 0.24 | 0.00 | 36 | 1011.5 |
| 20260505233744 | 71 | 274 | 2.6 | 7.8 | 0.00 | 0.24 | 0.00 | 36 | 1011.5 |
| 20260505233549 | 72 | 261 | 2.6 | 5.2 | 0.00 | 0.24 | 0.00 | 36 | 1011.5 |
| 20260505233545 | 72 | 316 | 2.6 | 7.8 | 0.00 | 0.24 | 0.00 | 36 | 1011.5 |
| 20260505233540 | 72 | 309 | 2.6 | 7.8 | 0.00 | 0.24 | 0.00 | 36 | 1011.5 |
| 20260505233336 | 72 | 335 | 2.6 | 5.2 | 0.00 | 0.24 | 0.00 | 36 | 1011.5 |
| 20260505233236 | 72 | 241 | 2.6 | 5.2 | 0.00 | 0.24 | 0.00 | 35 | 1011.6 |
| 20260505233136 | 72 | 19 | 2.6 | 4.3 | 0.00 | 0.24 | 0.00 | 36 | 1011.6 |
| 20260505233036 | 72 | 335 | 2.6 | 4.3 | 0.00 | 0.24 | 0.00 | 37 | 1011.6 |
| 20260505232936 | 72 | 292 | 2.6 | 4.3 | 0.00 | 0.24 | 0.00 | 37 | 1011.6 |
| 20260505232836 | 72 | 163 | 2.6 | 4.3 | 0.00 | 0.24 | 0.00 | 37 | 1011.6 |
| 20260505232736 | 72 | 274 | 2.6 | 4.3 | 0.00 | 0.24 | 0.00 | 36 | 1011.6 |
| 20260505232633 | 72 | 299 | 2.6 | 4.3 | 0.00 | 0.24 | 0.00 | 37 | 1011.6 |
| 20260505232533 | 72 | 240 | 2.6 | 4.3 | 0.00 | 0.24 | 0.00 | 37 | 1011.6 |
| 20260505232500 | 72 | 292 | 2.6 | 5.2 | 0.00 | 0.24 | 0.00 | 37 | 1011.6 |
| 20260505232433 | 71 | 317 | 2.6 | 5.2 | 0.00 | 0.24 | 0.00 | 37 | 1011.6 |
| 20260505232333 | 71 | 269 | 2.6 | 5.2 | 0.00 | 0.24 | 0.00 | 37 | 1011.6 |
| 20260505232233 | 71 | 211 | 2.6 | 5.2 | 0.00 | 0.24 | 0.00 | 37 | 1011.6 |
| 20260505232129 | 71 | 25 | 2.6 | 5.2 | 0.00 | 0.24 | 0.00 | 37 | 1011.6 |
| 20260505232028 | 72 | 87 | 2.6 | 5.2 | 0.00 | 0.24 | 0.00 | 36 | 1011.6 |
| 20260505232000 | 71 | 75 | 2.6 | 5.2 | 0.00 | 0.24 | 0.00 | 36 | 1011.6 |
| 20260505231926 | 72 | 335 | 2.6 | 5.2 | 0.00 | 0.24 | 0.00 | 36 | 1011.6 |
| 20260505231826 | 71 | 201 | 2.6 | 5.2 | 0.00 | 0.24 | 0.00 | 35 | 1011.8 |
| 20260505231724 | 71 | 14 | 2.6 | 5.2 | 0.00 | 0.24 | 0.00 | 36 | 1011.8 |
| 20260505231628 | 71 | 14 | 2.6 | 5.2 | 0.00 | 0.24 | 0.00 | 35 | 1011.8 |
| 20260505231623 | 71 | 67 | 2.6 | 4.3 | 0.00 | 0.24 | 0.00 | 36 | 1011.8 |
| 20260505231457 | 71 | 266 | 2.6 | 4.3 | 0.00 | 0.24 | 0.00 | 35 | 1011.8 |
| 20260505231415 | 71 | 6 | 2.6 | 4.3 | 0.00 | 0.24 | 0.00 | 35 | 1011.8 |
| 20260505231310 | 71 | 75 | 2.6 | 4.3 | 0.00 | 0.24 | 0.00 | 36 | 1011.8 |
| 20260505231208 | 71 | 117 | 2.6 | 4.3 | 0.00 | 0.24 | 0.00 | 35 | 1011.8 |
| 20260505231109 | 71 | 91 | 2.6 | 4.3 | 0.00 | 0.24 | 0.00 | 36 | 1011.8 |
| 20260505231008 | 71 | 227 | 2.6 | 4.3 | 0.00 | 0.24 | 0.00 | 36 | 1011.8 |
| 20260505230957 | 71 | 251 | 2.6 | 4.3 | 0.00 | 0.24 | 0.00 | 36 | 1011.8 |
| 20260505230909 | 71 | 85 | 2.6 | 4.3 | 0.00 | 0.24 | 0.00 | 36 | 1011.8 |
| 20260505230803 | 71 | 155 | 2.6 | 4.3 | 0.00 | 0.24 | 0.00 | 37 | 1011.8 |
| 20260505230703 | 71 | 143 | 2.6 | 4.3 | 0.00 | 0.24 | 0.00 | 36 | 1011.8 |
| 20260505230603 | 71 | 304 | 2.6 | 6.1 | 0.00 | 0.24 | 0.00 | 37 | 1011.8 |
| 20260505230512 | 71 | 251 | 2.6 | 6.1 | 0.00 | 0.24 | 0.00 | 37 | 1011.8 |
| 20260505230508 | 71 | 168 | 2.6 | 6.1 | 0.00 | 0.24 | 0.00 | 37 | 1011.8 |
| 20260505230503 | 71 | 167 | 2.6 | 6.1 | 0.00 | 0.24 | 0.00 | 37 | 1011.8 |
| 20260505230258 | 71 | 191 | 2.6 | 6.1 | 0.00 | 0.24 | 0.00 | 37 | 1011.9 |
| 20260505230159 | 71 | 100 | 2.6 | 6.1 | 0.00 | 0.24 | 0.00 | 36 | 1011.9 |
| 20260505230055 | 71 | 138 | 2.6 | 6.1 | 0.00 | 0.24 | 0.00 | 36 | 1011.9 |
| 20260505225954 | 71 | 165 | 2.6 | 6.1 | 0.00 | 0.24 | 0.00 | 36 | 1011.9 |
| 20260505225850 | 71 | 119 | 2.6 | 6.1 | 0.00 | 0.24 | 0.00 | 37 | 1011.9 |
| 20260505225751 | 71 | 62 | 2.6 | 6.1 | 0.00 | 0.24 | 0.00 | 37 | 1011.9 |
| 20260505225646 | 71 | 143 | 2.6 | 6.1 | 0.00 | 0.24 | 0.00 | 37 | 1011.9 |
| 20260505225545 | 70 | 130 | 2.6 | 6.1 | 0.00 | 0.24 | 0.00 | 38 | 1011.9 |
| 20260505225443 | 70 | 84 | 2.6 | 6.1 | 0.00 | 0.24 | 0.00 | 37 | 1011.9 |
| 20260505225438 | 70 | 305 | 2.6 | 6.1 | 0.00 | 0.24 | 0.00 | 37 | 1011.9 |
| 20260505225233 | 70 | 272 | 2.6 | 6.1 | 0.00 | 0.24 | 0.00 | 37 | 1011.9 |
| 20260505225134 | 70 | 233 | 2.6 | 6.1 | 0.00 | 0.24 | 0.00 | 38 | 1011.9 |
| 20260505225047 | 70 | 278 | 2.6 | 5.2 | 0.00 | 0.24 | 0.00 | 38 | 1011.9 |
| 20260505225043 | 70 | 294 | 2.6 | 6.1 | 0.00 | 0.24 | 0.00 | 38 | 1011.9 |
| 20260505225038 | 70 | 314 | 2.6 | 6.1 | 0.00 | 0.24 | 0.00 | 38 | 1011.9 |
| 20260505224833 | 70 | 317 | 2.6 | 5.2 | 0.00 | 0.24 | 0.00 | 38 | 1011.9 |
| 20260505224733 | 70 | 234 | 2.6 | 5.2 | 0.00 | 0.24 | 0.00 | 38 | 1012.0 |
| 20260505224638 | 69 | 275 | 2.6 | 5.2 | 0.00 | 0.24 | 0.00 | 38 | 1012.0 |
| 20260505224634 | 70 | 198 | 2.6 | 5.2 | 0.00 | 0.24 | 0.00 | 38 | 1012.0 |
| 20260505224450 | 69 | 325 | 2.6 | 5.2 | 0.00 | 0.24 | 0.00 | 38 | 1012.0 |
| 20260505224428 | 69 | 280 | 2.6 | 5.2 | 0.00 | 0.24 | 0.00 | 39 | 1012.0 |
| 20260505224338 | 69 | 112 | 2.6 | 5.2 | 0.00 | 0.24 | 0.00 | 39 | 1012.0 |
| 20260505224334 | 69 | 174 | 2.6 | 5.2 | 0.00 | 0.24 | 0.00 | 39 | 1012.0 |
| 20260505224135 | 69 | 40 | 2.6 | 5.2 | 0.00 | 0.24 | 0.00 | 39 | 1012.0 |
| 20260505224131 | 69 | 110 | 2.6 | 5.2 | 0.00 | 0.24 | 0.00 | 39 | 1012.0 |
| 20260505223949 | 69 | 350 | 2.6 | 4.3 | 0.00 | 0.24 | 0.00 | 39 | 1012.0 |
| 20260505223926 | 69 | 34 | 2.6 | 4.3 | 0.00 | 0.24 | 0.00 | 39 | 1012.0 |
| 20260505223826 | 69 | 143 | 2.6 | 4.3 | 0.00 | 0.24 | 0.00 | 39 | 1012.0 |
| 20260505223723 | 69 | 111 | 2.6 | 4.3 | 0.00 | 0.24 | 0.00 | 39 | 1012.0 |
| 20260505223651 | 69 | 96 | 2.6 | 4.3 | 0.00 | 0.24 | 0.00 | 38 | 1012.0 |
| 20260505223647 | 69 | 43 | 2.6 | 4.3 | 0.00 | 0.24 | 0.00 | 39 | 1012.0 |
| 20260505223642 | 69 | 96 | 2.6 | 5.2 | 0.00 | 0.24 | 0.00 | 40 | 1012.1 |
| 20260505223638 | 69 | 93 | 2.6 | 4.3 | 0.00 | 0.24 | 0.00 | 39 | 1012.0 |
| 20260505223528 | 69 | 57 | 2.6 | 4.3 | 0.00 | 0.24 | 0.00 | 38 | 1012.0 |
| 20260505223222 | 69 | 157 | 2.6 | 7.0 | 0.00 | 0.24 | 0.00 | 39 | 1012.1 |
| 20260505223218 | 69 | 139 | 2.6 | 7.0 | 0.00 | 0.24 | 0.00 | 40 | 1012.1 |
| 20260505223118 | 69 | 12 | 2.6 | 7.0 | 0.00 | 0.24 | 0.00 | 39 | 1012.1 |
| 20260505223055 | 69 | 124 | 2.6 | 7.0 | 0.00 | 0.24 | 0.00 | 40 | 1012.1 |
| 20260505222913 | 69 | 194 | 2.6 | 7.0 | 0.00 | 0.24 | 0.00 | 39 | 1012.1 |
| 20260505222809 | 69 | 260 | 2.6 | 7.0 | 0.00 | 0.24 | 0.00 | 39 | 1012.1 |
| 20260505222708 | 69 | 272 | 2.6 | 7.0 | 0.00 | 0.24 | 0.00 | 40 | 1012.1 |
| 20260505222608 | 69 | 286 | 2.6 | 7.0 | 0.00 | 0.24 | 0.00 | 39 | 1012.1 |
| 20260505222506 | 69 | 277 | 2.6 | 7.0 | 0.00 | 0.24 | 0.00 | 39 | 1012.1 |
| 20260505222450 | 69 | 282 | 2.6 | 7.0 | 0.00 | 0.24 | 0.00 | 40 | 1012.1 |
| 20260505222404 | 69 | 294 | 2.6 | 7.0 | 0.00 | 0.24 | 0.00 | 39 | 1012.1 |
| 20260505222313 | 69 | 234 | 2.6 | 7.8 | 0.00 | 0.24 | 0.00 | 40 | 1012.1 |
| 20260505222309 | 69 | 48 | 2.6 | 7.0 | 0.00 | 0.24 | 0.00 | 39 | 1012.1 |
| 20260505222103 | 69 | 137 | 2.6 | 7.8 | 0.00 | 0.24 | 0.00 | 41 | 1012.1 |
| 20260505222003 | 69 | 59 | 3.5 | 7.8 | 0.00 | 0.24 | 0.00 | 40 | 1012.1 |
| 20260505221949 | 69 | 58 | 3.5 | 7.8 | 0.00 | 0.24 | 0.00 | 39 | 1012.1 |
| 20260505221903 | 69 | 172 | 3.5 | 7.8 | 0.00 | 0.24 | 0.00 | 40 | 1012.1 |
| 20260505221803 | 69 | 352 | 3.5 | 7.8 | 0.00 | 0.24 | 0.00 | 40 | 1012.5 |
| 20260505221658 | 69 | 155 | 3.5 | 7.8 | 0.00 | 0.24 | 0.00 | 41 | 1012.5 |
| 20260505221558 | 69 | 211 | 3.5 | 7.8 | 0.00 | 0.24 | 0.00 | 41 | 1012.5 |
| 20260505221443 | 69 | 212 | 3.5 | 7.8 | 0.00 | 0.24 | 0.00 | 40 | 1012.5 |
| 20260505221349 | 69 | 269 | 3.5 | 7.8 | 0.00 | 0.24 | 0.00 | 40 | 1012.5 |
| 20260505221243 | 69 | 302 | 3.5 | 7.8 | 0.00 | 0.24 | 0.00 | 41 | 1012.5 |
| 20260505221143 | 69 | 252 | 3.5 | 6.1 | 0.00 | 0.24 | 0.00 | 40 | 1012.5 |
| 20260505221044 | 69 | 259 | 3.5 | 7.8 | 0.00 | 0.24 | 0.00 | 40 | 1012.5 |
| 20260505220944 | 68 | 277 | 3.5 | 7.8 | 0.00 | 0.24 | 0.00 | 41 | 1012.5 |
| 20260505220843 | 68 | 143 | 3.5 | 8.7 | 0.00 | 0.24 | 0.00 | 42 | 1012.5 |
| 20260505220743 | 68 | 120 | 3.5 | 10.4 | 0.00 | 0.24 | 0.00 | 41 | 1012.5 |
| 20260505220643 | 68 | 172 | 3.5 | 10.4 | 0.00 | 0.24 | 0.00 | 41 | 1012.5 |
| 20260505220543 | 68 | 210 | 3.5 | 10.4 | 0.00 | 0.24 | 0.00 | 42 | 1012.5 |
| 20260505220444 | 67 | 148 | 3.5 | 10.4 | 0.00 | 0.24 | 0.00 | 44 | 1012.5 |
| 20260505220343 | 67 | 61 | 3.5 | 10.4 | 0.00 | 0.24 | 0.00 | 42 | 1012.5 |
| 20260505220243 | 67 | 296 | 3.5 | 10.4 | 0.00 | 0.24 | 0.00 | 41 | 1012.6 |
| 20260505220143 | 67 | 85 | 3.5 | 10.4 | 0.00 | 0.24 | 0.00 | 41 | 1012.6 |
| 20260505220043 | 67 | 292 | 3.5 | 10.4 | 0.00 | 0.24 | 0.00 | 42 | 1012.6 |
| 20260505215943 | 68 | 301 | 2.6 | 10.4 | 0.00 | 0.24 | 0.00 | 41 | 1012.6 |
| 20260505215843 | 68 | 287 | 2.6 | 10.4 | 0.00 | 0.24 | 0.00 | 41 | 1012.6 |
| 20260505215752 | 68 | 262 | 2.6 | 7.0 | 0.00 | 0.24 | 0.00 | 41 | 1012.6 |
| 20260505215748 | 68 | 272 | 2.6 | 7.0 | 0.00 | 0.24 | 0.00 | 41 | 1012.6 |
| 20260505215543 | 68 | 285 | 2.6 | 7.0 | 0.00 | 0.24 | 0.00 | 41 | 1012.6 |
| 20260505215443 | 67 | 305 | 2.6 | 5.2 | 0.00 | 0.24 | 0.00 | 42 | 1012.6 |
| 20260505215343 | 67 | 283 | 2.6 | 5.2 | 0.00 | 0.24 | 0.00 | 42 | 1012.6 |
| 20260505215245 | 67 | 272 | 2.6 | 5.2 | 0.00 | 0.24 | 0.00 | 42 | 1012.6 |
| 20260505215240 | 67 | 306 | 2.6 | 5.2 | 0.00 | 0.24 | 0.00 | 43 | 1012.6 |
| 20260505215049 | 67 | 236 | 3.5 | 5.2 | 0.00 | 0.24 | 0.00 | 44 | 1012.6 |
| 20260505215045 | 67 | 307 | 2.6 | 5.2 | 0.00 | 0.24 | 0.00 | 44 | 1012.6 |
| 20260505215040 | 67 | 216 | 3.5 | 5.2 | 0.00 | 0.24 | 0.00 | 44 | 1012.6 |
| 20260505214836 | 67 | 261 | 3.5 | 5.2 | 0.00 | 0.24 | 0.00 | 44 | 1012.6 |
| 20260505214736 | 67 | 313 | 3.5 | 5.2 | 0.00 | 0.24 | 0.00 | 44 | 1012.7 |
| 20260505214636 | 67 | 277 | 3.5 | 6.1 | 0.00 | 0.24 | 0.00 | 44 | 1012.7 |
| 20260505214536 | 67 | 27 | 3.5 | 6.1 | 0.00 | 0.24 | 0.00 | 43 | 1012.7 |
| 20260505214442 | 67 | 27 | 3.5 | 6.1 | 0.00 | 0.24 | 0.00 | 43 | 1012.7 |
| 20260505214438 | 67 | 26 | 3.5 | 7.8 | 0.00 | 0.24 | 0.00 | 44 | 1012.7 |
| 20260505214434 | 67 | 26 | 3.5 | 7.8 | 0.00 | 0.24 | 0.00 | 44 | 1012.7 |
| 20260505214228 | 67 | 283 | 3.5 | 7.8 | 0.00 | 0.24 | 0.00 | 43 | 1012.7 |
| 20260505214128 | 67 | 312 | 3.5 | 7.8 | 0.00 | 0.24 | 0.00 | 43 | 1012.7 |
| 20260505214029 | 67 | 33 | 3.5 | 7.8 | 0.00 | 0.24 | 0.00 | 44 | 1012.7 |
| 20260505213946 | 68 | 305 | 2.6 | 7.8 | 0.00 | 0.24 | 0.00 | 43 | 1012.7 |
| 20260505213942 | 67 | 309 | 2.6 | 7.8 | 0.00 | 0.24 | 0.00 | 44 | 1012.7 |
| 20260505213929 | 67 | 323 | 2.6 | 7.8 | 0.00 | 0.24 | 0.00 | 44 | 1012.7 |
| 20260505213828 | 67 | 309 | 2.6 | 7.8 | 0.00 | 0.24 | 0.00 | 43 | 1012.7 |
| 20260505213818 | 67 | 53 | 2.6 | 7.8 | 0.00 | 0.24 | 0.00 | 43 | 1012.7 |
| 20260505213628 | 67 | 46 | 2.6 | 7.8 | 0.00 | 0.24 | 0.00 | 43 | 1012.7 |
| 20260505213547 | 68 | 327 | 2.6 | 7.8 | 0.00 | 0.24 | 0.00 | 43 | 1012.7 |
| 20260505213437 | 68 | 236 | 2.6 | 5.2 | 0.00 | 0.24 | 0.00 | 41 | 1012.9 |
| 20260505213433 | 68 | 320 | 2.6 | 4.3 | 0.00 | 0.24 | 0.00 | 42 | 1012.7 |
| 20260505213228 | 68 | 136 | 2.6 | 5.2 | 0.00 | 0.24 | 0.00 | 42 | 1012.9 |
| 20260505213128 | 67 | 122 | 2.6 | 7.0 | 0.00 | 0.24 | 0.00 | 43 | 1012.9 |
| 20260505213040 | 67 | 63 | 2.6 | 7.0 | 0.00 | 0.24 | 0.00 | 45 | 1012.9 |
| 20260505213035 | 67 | 96 | 2.6 | 7.0 | 0.00 | 0.24 | 0.00 | 43 | 1012.9 |
| 20260505213030 | 67 | 118 | 2.6 | 7.0 | 0.00 | 0.24 | 0.00 | 44 | 1012.9 |
| 20260505212826 | 67 | 51 | 2.6 | 7.0 | 0.00 | 0.24 | 0.00 | 44 | 1012.9 |
| 20260505212736 | 67 | 194 | 2.6 | 7.0 | 0.00 | 0.24 | 0.00 | 43 | 1012.9 |
| 20260505212732 | 67 | 142 | 2.6 | 7.0 | 0.00 | 0.24 | 0.00 | 44 | 1012.9 |
| 20260505212553 | 67 | 200 | 2.6 | 7.8 | 0.00 | 0.24 | 0.00 | 44 | 1012.9 |
| 20260505212526 | 67 | 93 | 2.6 | 7.0 | 0.00 | 0.24 | 0.00 | 44 | 1012.9 |
| 20260505212441 | 67 | 196 | 2.6 | 7.0 | 0.00 | 0.24 | 0.00 | 44 | 1012.9 |
| 20260505212437 | 67 | 27 | 2.6 | 7.8 | 0.00 | 0.24 | 0.00 | 43 | 1012.9 |
| 20260505212433 | 67 | 191 | 2.6 | 7.8 | 0.00 | 0.24 | 0.00 | 43 | 1012.9 |
| 20260505212428 | 67 | 77 | 2.6 | 7.8 | 0.00 | 0.24 | 0.00 | 45 | 1012.9 |
| 20260505212138 | 67 | 143 | 2.6 | 7.8 | 0.00 | 0.24 | 0.00 | 44 | 1012.9 |
| 20260505212134 | 67 | 165 | 2.6 | 7.8 | 0.00 | 0.24 | 0.00 | 43 | 1012.9 |
| 20260505212128 | 67 | 108 | 2.6 | 7.8 | 0.00 | 0.24 | 0.00 | 43 | 1012.9 |
| 20260505211816 | 67 | 234 | 2.6 | 7.8 | 0.00 | 0.24 | 0.00 | 44 | 1012.9 |
| 20260505211715 | 67 | 22 | 2.6 | 7.8 | 0.00 | 0.24 | 0.00 | 43 | 1012.9 |
| 20260505211615 | 67 | 66 | 2.6 | 7.8 | 0.00 | 0.24 | 0.00 | 44 | 1012.9 |
| 20260505211513 | 67 | 165 | 2.6 | 7.8 | 0.00 | 0.24 | 0.00 | 44 | 1012.9 |
| 20260505211439 | 67 | 191 | 2.6 | 7.8 | 0.00 | 0.24 | 0.00 | 44 | 1012.9 |
| 20260505211413 | 67 | 195 | 2.6 | 7.8 | 0.00 | 0.24 | 0.00 | 44 | 1012.9 |
| 20260505211311 | 67 | 189 | 2.6 | 7.8 | 0.00 | 0.24 | 0.00 | 43 | 1012.9 |
| 20260505211205 | 67 | 185 | 2.6 | 7.8 | 0.00 | 0.24 | 0.00 | 43 | 1012.9 |
| 20260505211106 | 67 | 101 | 2.6 | 7.8 | 0.00 | 0.24 | 0.00 | 45 | 1012.9 |
| 20260505211005 | 67 | 131 | 2.6 | 7.8 | 0.00 | 0.24 | 0.00 | 44 | 1012.9 |
| 20260505210940 | 67 | 154 | 2.6 | 6.1 | 0.00 | 0.24 | 0.00 | 44 | 1012.9 |
| 20260505210906 | 67 | 245 | 2.6 | 6.1 | 0.00 | 0.24 | 0.00 | 44 | 1012.9 |
| 20260505210806 | 67 | 69 | 2.6 | 6.1 | 0.00 | 0.24 | 0.00 | 45 | 1012.9 |
| 20260505210706 | 67 | 113 | 2.6 | 6.1 | 0.00 | 0.24 | 0.00 | 44 | 1012.9 |
| 20260505210605 | 67 | 175 | 2.6 | 6.1 | 0.00 | 0.24 | 0.00 | 44 | 1012.9 |
| 20260505210506 | 67 | 183 | 2.6 | 6.1 | 0.00 | 0.24 | 0.00 | 44 | 1012.9 |
| 20260505210439 | 67 | 182 | 2.6 | 6.1 | 0.00 | 0.24 | 0.00 | 44 | 1012.9 |
| 20260505210406 | 67 | 173 | 2.6 | 6.1 | 0.00 | 0.24 | 0.00 | 44 | 1012.9 |
| 20260505210306 | 67 | 223 | 2.6 | 7.0 | 0.00 | 0.24 | 0.00 | 44 | 1013.0 |
| 20260505210206 | 67 | 123 | 2.6 | 7.0 | 0.00 | 0.24 | 0.00 | 45 | 1013.0 |
| 20260505210106 | 67 | 194 | 2.6 | 7.0 | 0.00 | 0.24 | 0.00 | 45 | 1013.0 |
| 20260505210006 | 66 | 84 | 2.6 | 7.0 | 0.00 | 0.24 | 0.00 | 46 | 1013.0 |
| 20260505205940 | 66 | 111 | 2.6 | 7.0 | 0.00 | 0.24 | 0.00 | 46 | 1013.0 |
| 20260505205905 | 66 | 58 | 2.6 | 7.0 | 0.00 | 0.24 | 0.00 | 46 | 1013.0 |
| 20260505205806 | 66 | 183 | 2.6 | 7.0 | 0.00 | 0.24 | 0.00 | 44 | 1013.0 |
| 20260505205710 | 66 | 172 | 2.6 | 7.0 | 0.00 | 0.24 | 0.00 | 47 | 1013.0 |
| 20260505205706 | 66 | 89 | 2.6 | 7.0 | 0.00 | 0.24 | 0.00 | 45 | 1013.0 |
| 20260505205654 | 66 | 142 | 2.6 | 7.0 | 0.00 | 0.24 | 0.00 | 46 | 1013.0 |
| 20260505205650 | 66 | 161 | 2.6 | 7.0 | 0.00 | 0.24 | 0.00 | 46 | 1013.0 |
| 20260505205403 | 66 | 146 | 2.6 | 7.0 | 0.00 | 0.24 | 0.00 | 46 | 1013.0 |
| 20260505205305 | 66 | 43 | 2.6 | 7.0 | 0.00 | 0.24 | 0.00 | 48 | 1013.0 |
| 20260505205201 | 66 | 13 | 2.6 | 7.0 | 0.00 | 0.24 | 0.00 | 46 | 1013.0 |
| 20260505205155 | 66 | 342 | 2.6 | 7.0 | 0.00 | 0.24 | 0.00 | 46 | 1013.0 |
| 20260505204951 | 66 | 340 | 2.6 | 7.0 | 0.00 | 0.24 | 0.00 | 46 | 1013.0 |
| 20260505204940 | 66 | 357 | 2.6 | 7.0 | 0.00 | 0.24 | 0.00 | 46 | 1013.0 |
| 20260505204850 | 66 | 47 | 2.6 | 5.2 | 0.00 | 0.24 | 0.00 | 46 | 1013.0 |
| 20260505204751 | 66 | 58 | 2.6 | 5.2 | 0.00 | 0.24 | 0.00 | 47 | 1013.1 |
| 20260505204651 | 65 | 71 | 2.6 | 5.2 | 0.00 | 0.24 | 0.00 | 47 | 1013.1 |
| 20260505204551 | 65 | 181 | 2.6 | 5.2 | 0.00 | 0.24 | 0.00 | 46 | 1013.1 |
| 20260505204500 | 65 | 231 | 2.6 | 5.2 | 0.00 | 0.24 | 0.00 | 48 | 1013.1 |
| 20260505204456 | 65 | 205 | 2.6 | 5.2 | 0.00 | 0.24 | 0.00 | 47 | 1013.1 |
| 20260505204450 | 65 | 175 | 2.6 | 5.2 | 0.00 | 0.24 | 0.00 | 47 | 1013.1 |
| 20260505204245 | 65 | 253 | 2.6 | 5.2 | 0.00 | 0.24 | 0.00 | 46 | 1013.1 |
| 20260505204146 | 65 | 130 | 2.6 | 5.2 | 0.00 | 0.24 | 0.00 | 48 | 1013.1 |
| 20260505204046 | 65 | 49 | 2.6 | 5.2 | 0.00 | 0.24 | 0.00 | 48 | 1013.1 |
| 20260505203945 | 65 | 89 | 2.6 | 5.2 | 0.00 | 0.24 | 0.00 | 47 | 1013.1 |
| 20260505203940 | 65 | 96 | 2.6 | 4.3 | 0.00 | 0.24 | 0.00 | 47 | 1013.1 |
| 20260505203846 | 65 | 192 | 2.6 | 4.3 | 0.00 | 0.24 | 0.00 | 46 | 1013.1 |
| 20260505203740 | 65 | 85 | 2.6 | 4.3 | 0.00 | 0.24 | 0.00 | 46 | 1013.1 |
| 20260505203651 | 65 | 10 | 2.6 | 7.8 | 0.00 | 0.24 | 0.00 | 47 | 1013.1 |
| 20260505203647 | 65 | 92 | 2.6 | 4.3 | 0.00 | 0.24 | 0.00 | 47 | 1013.1 |
| 20260505203440 | 65 | 177 | 2.6 | 7.8 | 0.00 | 0.24 | 0.00 | 47 | 1013.1 |
| 20260505203341 | 65 | 194 | 2.6 | 7.8 | 0.00 | 0.24 | 0.00 | 47 | 1013.1 |
| 20260505203240 | 65 | 222 | 2.6 | 7.8 | 0.00 | 0.24 | 0.00 | 46 | 1013.1 |
| 20260505203138 | 65 | 204 | 2.6 | 7.8 | 0.00 | 0.24 | 0.00 | 47 | 1013.1 |
| 20260505203039 | 65 | 178 | 2.6 | 7.8 | 0.00 | 0.24 | 0.00 | 48 | 1013.1 |
| 20260505202938 | 65 | 143 | 2.6 | 7.8 | 0.00 | 0.24 | 0.00 | 48 | 1013.1 |
| 20260505202839 | 65 | 90 | 2.6 | 7.8 | 0.00 | 0.24 | 0.00 | 47 | 1013.1 |
| 20260505202738 | 65 | 123 | 2.6 | 7.8 | 0.00 | 0.24 | 0.00 | 48 | 1013.1 |
| 20260505202638 | 65 | 104 | 2.6 | 7.8 | 0.00 | 0.24 | 0.00 | 48 | 1013.1 |
| 20260505202608 | 65 | 161 | 2.6 | 6.1 | 0.00 | 0.25 | 0.00 | 48 | 1013.1 |
| 20260505202604 | 65 | 138 | 2.6 | 6.1 | 0.00 | 0.24 | 0.00 | 48 | 1013.1 |
| 20260505202455 | 65 | 228 | 2.6 | 6.1 | 0.00 | 0.27 | 0.00 | 48 | 1013.1 |
| 20260505202447 | 65 | 95 | 2.6 | 6.1 | 0.00 | 0.24 | 0.00 | 48 | 1013.1 |
| 20260505202217 | 65 | 38 | 2.6 | 6.1 | 0.00 | 0.28 | 0.00 | 47 | 1013.1 |
| 20260505202136 | 65 | 174 | 2.6 | 6.1 | 0.00 | 0.27 | 0.00 | 48 | 1013.1 |
| 20260505202045 | 65 | 300 | 2.6 | 6.1 | 0.00 | 0.28 | 0.00 | 48 | 1013.1 |
| 20260505201942 | 65 | 38 | 2.6 | 6.1 | 0.00 | 0.28 | 0.00 | 47 | 1013.1 |
| 20260505201836 | 65 | 44 | 2.6 | 6.1 | 0.00 | 0.29 | 0.00 | 49 | 1013.1 |
| 20260505201736 | 65 | 69 | 2.6 | 6.1 | 0.00 | 0.29 | 0.00 | 49 | 1013.3 |
| 20260505201634 | 65 | 172 | 2.6 | 6.1 | 0.00 | 0.29 | 0.00 | 48 | 1013.3 |
| 20260505201528 | 65 | 237 | 2.6 | 6.1 | 0.00 | 0.29 | 0.00 | 48 | 1013.3 |
| 20260505201437 | 65 | 260 | 2.6 | 5.2 | 0.00 | 0.29 | 0.00 | 49 | 1013.3 |
| 20260505201429 | 65 | 268 | 2.6 | 5.2 | 0.00 | 0.29 | 0.00 | 49 | 1013.3 |
| 20260505201328 | 65 | 84 | 2.6 | 5.2 | 0.00 | 0.29 | 0.00 | 49 | 1013.3 |
| 20260505201228 | 65 | 49 | 2.6 | 5.2 | 0.00 | 0.29 | 0.00 | 49 | 1013.3 |
| 20260505201128 | 65 | 103 | 2.6 | 5.2 | 0.00 | 0.29 | 0.00 | 50 | 1013.3 |
| 20260505201028 | 64 | 155 | 2.6 | 5.2 | 0.00 | 0.29 | 0.00 | 48 | 1013.3 |
| 20260505200928 | 64 | 117 | 2.6 | 5.2 | 0.00 | 0.29 | 0.00 | 51 | 1013.3 |
| 20260505200828 | 64 | 117 | 2.6 | 5.2 | 0.00 | 0.29 | 0.00 | 49 | 1013.3 |
| 20260505200729 | 64 | 90 | 2.6 | 5.2 | 0.00 | 0.29 | 0.00 | 49 | 1013.3 |
| 20260505200628 | 64 | 112 | 2.6 | 5.2 | 0.00 | 0.29 | 0.00 | 51 | 1013.3 |
| 20260505200528 | 64 | 108 | 2.6 | 5.2 | 0.00 | 0.29 | 0.00 | 50 | 1013.3 |
| 20260505200441 | 64 | 184 | 1.7 | 4.3 | 0.00 | 0.29 | 0.00 | 51 | 1013.4 |
| 20260505200437 | 64 | 112 | 2.6 | 5.2 | 0.00 | 0.29 | 0.00 | 51 | 1013.3 |
| 20260505200426 | 64 | 122 | 2.6 | 5.2 | 0.00 | 0.29 | 0.00 | 51 | 1013.3 |
| 20260505200326 | 64 | 169 | 2.6 | 5.2 | 0.00 | 0.29 | 0.00 | 50 | 1013.4 |
| 20260505200313 | 64 | 187 | 2.6 | 4.3 | 0.00 | 0.29 | 0.00 | 51 | 1013.4 |
| 20260505200125 | 64 | 145 | 2.6 | 4.3 | 0.00 | 0.29 | 0.00 | 51 | 1013.4 |
| 20260505200042 | 64 | 193 | 2.6 | 4.3 | 0.00 | 0.29 | 0.00 | 50 | 1013.4 |
| 20260505195921 | 64 | 196 | 1.7 | 4.3 | 0.00 | 0.29 | 0.00 | 52 | 1013.4 |
| 20260505195820 | 63 | 19 | 1.7 | 4.3 | 0.00 | 0.29 | 0.00 | 51 | 1013.4 |
| 20260505195721 | 63 | 157 | 1.7 | 4.3 | 0.00 | 0.29 | 0.00 | 52 | 1013.4 |
| 20260505195620 | 63 | 173 | 1.7 | 4.3 | 0.00 | 0.29 | 0.00 | 52 | 1013.4 |
| 20260505195520 | 63 | 123 | 1.7 | 4.3 | 0.00 | 0.29 | 0.00 | 54 | 1013.4 |
| 20260505195437 | 63 | 81 | 1.7 | 4.3 | 0.00 | 0.29 | 0.00 | 53 | 1013.4 |
| 20260505195420 | 63 | 105 | 1.7 | 4.3 | 0.00 | 0.29 | 0.00 | 53 | 1013.4 |
| 20260505195319 | 63 | 115 | 1.7 | 4.3 | 0.00 | 0.29 | 0.00 | 53 | 1013.4 |
| 20260505195216 | 63 | 152 | 1.7 | 3.5 | 0.00 | 0.29 | 0.00 | 54 | 1013.4 |
| 20260505195208 | 62 | 152 | 3.5 | 3.5 | 0.00 | 0.29 | 0.00 | 54 | 1013.4 |
| 20260505195113 | 63 | 359 | 1.7 | 3.5 | 0.00 | 0.29 | 0.00 | 54 | 1013.4 |
| 20260505195043 | 63 | 213 | 3.5 | 3.5 | 0.00 | 0.29 | 0.00 | 54 | 1013.4 |
| 20260505194909 | 62 | 255 | 3.5 | 4.3 | 0.00 | 0.29 | 0.00 | 55 | 1013.4 |
| 20260505194818 | 62 | 139 | 3.5 | 4.3 | 0.00 | 0.29 | 0.00 | 54 | 1013.5 |
| 20260505194814 | 62 | 144 | 3.5 | 4.3 | 0.00 | 0.29 | 0.00 | 55 | 1013.5 |
| 20260505194601 | 62 | 273 | 3.5 | 5.2 | 0.00 | 0.29 | 0.00 | 53 | 1013.5 |
| 20260505194459 | 62 | 134 | 3.5 | 6.1 | 0.00 | 0.29 | 0.00 | 53 | 1013.5 |
| 20260505194437 | 62 | 135 | 3.5 | 6.1 | 0.00 | 0.29 | 0.00 | 53 | 1013.5 |
| 20260505194356 | 62 | 165 | 3.5 | 6.1 | 0.00 | 0.29 | 0.00 | 53 | 1013.5 |
| 20260505194256 | 62 | 315 | 3.5 | 6.1 | 0.00 | 0.29 | 0.00 | 53 | 1013.5 |
| 20260505194155 | 62 | 313 | 3.5 | 7.0 | 0.00 | 0.29 | 0.00 | 53 | 1013.5 |
| 20260505194056 | 62 | 264 | 3.5 | 7.0 | 0.00 | 0.29 | 0.00 | 53 | 1013.5 |
| 20260505193955 | 62 | 6 | 2.6 | 7.0 | 0.00 | 0.29 | 0.00 | 54 | 1013.5 |
| 20260505193937 | 62 | 6 | 2.6 | 7.0 | 0.00 | 0.29 | 0.00 | 55 | 1013.5 |
| 20260505193848 | 62 | 294 | 2.6 | 7.0 | 0.00 | 0.29 | 0.00 | 54 | 1013.5 |
| 20260505193755 | 62 | 35 | 2.6 | 7.0 | 0.00 | 0.29 | 0.00 | 54 | 1013.5 |
| 20260505193751 | 62 | 258 | 2.6 | 7.0 | 0.00 | 0.29 | 0.00 | 53 | 1013.5 |
| 20260505193545 | 62 | 90 | 2.6 | 7.0 | 0.00 | 0.29 | 0.00 | 53 | 1013.5 |
| 20260505193446 | 62 | 119 | 2.6 | 7.0 | 0.00 | 0.29 | 0.00 | 54 | 1013.5 |
| 20260505193434 | 62 | 90 | 2.6 | 7.0 | 0.00 | 0.29 | 0.00 | 54 | 1013.5 |
| 20260505193355 | 62 | 300 | 2.6 | 5.2 | 0.00 | 0.29 | 0.00 | 54 | 1013.4 |
| 20260505193351 | 62 | 14 | 2.6 | 7.0 | 0.00 | 0.29 | 0.00 | 54 | 1013.5 |
| 20260505193146 | 62 | 265 | 2.6 | 5.2 | 0.00 | 0.29 | 0.00 | 54 | 1013.4 |
| 20260505193043 | 62 | 194 | 2.6 | 5.2 | 0.00 | 0.29 | 0.00 | 54 | 1013.4 |
| 20260505192943 | 62 | 180 | 2.6 | 5.2 | 0.00 | 0.29 | 0.00 | 55 | 1013.4 |
| 20260505192934 | 62 | 166 | 2.6 | 5.2 | 0.00 | 0.29 | 0.00 | 56 | 1013.4 |
| 20260505192843 | 62 | 189 | 2.6 | 5.2 | 0.00 | 0.29 | 0.00 | 55 | 1013.4 |
| 20260505192743 | 62 | 143 | 2.6 | 5.2 | 0.00 | 0.29 | 0.00 | 56 | 1013.4 |
| 20260505192643 | 62 | 181 | 2.6 | 5.2 | 0.00 | 0.29 | 0.00 | 56 | 1013.4 |
| 20260505192543 | 61 | 144 | 2.6 | 5.2 | 0.00 | 0.29 | 0.00 | 56 | 1013.4 |
| 20260505192443 | 61 | 96 | 2.6 | 5.2 | 0.00 | 0.29 | 0.00 | 58 | 1013.4 |
| 20260505192434 | 61 | 72 | 2.6 | 5.2 | 0.00 | 0.29 | 0.00 | 58 | 1013.4 |
| 20260505192343 | 61 | 216 | 2.6 | 5.2 | 0.00 | 0.29 | 0.00 | 59 | 1013.4 |
| 20260505192243 | 61 | 17 | 2.6 | 5.2 | 0.00 | 0.29 | 0.00 | 57 | 1013.4 |
| 20260505192145 | 61 | 23 | 2.6 | 5.2 | 0.00 | 0.29 | 0.00 | 57 | 1013.4 |
| 20260505192104 | 61 | 123 | 1.7 | 5.2 | 0.00 | 0.29 | 0.00 | 57 | 1013.4 |
| 20260505192100 | 61 | 292 | 1.7 | 5.2 | 0.00 | 0.29 | 0.00 | 56 | 1013.4 |
| 20260505192055 | 61 | 38 | 2.6 | 5.2 | 0.00 | 0.29 | 0.00 | 57 | 1013.4 |
| 20260505191945 | 61 | 122 | 1.7 | 5.2 | 0.00 | 0.29 | 0.00 | 57 | 1013.4 |
| 20260505191741 | 61 | 308 | 1.7 | 5.2 | 0.00 | 0.29 | 0.00 | 56 | 1013.4 |
| 20260505191641 | 60 | 326 | 1.7 | 4.3 | 0.00 | 0.29 | 0.00 | 58 | 1013.4 |
| 20260505191540 | 60 | 115 | 1.7 | 4.3 | 0.00 | 0.29 | 0.00 | 58 | 1013.4 |
| 20260505191438 | 60 | 96 | 1.7 | 4.3 | 0.00 | 0.29 | 0.00 | 59 | 1013.4 |
| 20260505191432 | 60 | 96 | 1.7 | 4.3 | 0.00 | 0.29 | 0.00 | 60 | 1013.4 |
| 20260505191358 | 59 | 179 | 2.6 | 7.8 | 0.00 | 0.29 | 0.00 | 58 | 1013.4 |
| 20260505191354 | 60 | 90 | 1.7 | 4.3 | 0.00 | 0.29 | 0.00 | 59 | 1013.4 |
| 20260505191350 | 60 | 49 | 2.6 | 4.3 | 0.00 | 0.29 | 0.00 | 60 | 1013.4 |
| 20260505191346 | 60 | 90 | 1.7 | 4.3 | 0.00 | 0.29 | 0.00 | 58 | 1013.4 |
| 20260505191235 | 60 | 9 | 1.7 | 4.3 | 0.00 | 0.29 | 0.00 | 58 | 1013.4 |
| 20260505191126 | 60 | 100 | 2.6 | 4.3 | 0.00 | 0.29 | 0.00 | 59 | 1013.4 |
| 20260505191122 | 59 | 122 | 2.6 | 4.3 | 0.00 | 0.29 | 0.00 | 59 | 1013.4 |
| 20260505191117 | 59 | 179 | 2.6 | 7.8 | 0.00 | 0.29 | 0.00 | 58 | 1013.4 |
| 20260505191113 | 60 | 52 | 1.7 | 4.3 | 0.00 | 0.29 | 0.00 | 59 | 1013.4 |
| 20260505191108 | 60 | 57 | 2.6 | 3.5 | 0.00 | 0.29 | 0.00 | 60 | 1013.4 |
| 20260505190643 | 59 | 121 | 2.6 | 4.3 | 0.00 | 0.29 | 0.00 | 59 | 1013.4 |
| 20260505190638 | 59 | 161 | 2.6 | 4.3 | 0.00 | 0.29 | 0.00 | 59 | 1013.4 |
| 20260505190330 | 59 | 178 | 2.6 | 8.7 | 0.00 | 0.29 | 0.00 | 58 | 1013.4 |
| 20260505190230 | 59 | 178 | 2.6 | 8.7 | 0.00 | 0.29 | 0.00 | 58 | 1013.4 |
| 20260505190138 | 59 | 296 | 2.6 | 8.7 | 0.00 | 0.29 | 0.00 | 59 | 1013.4 |
| 20260505190134 | 59 | 212 | 2.6 | 8.7 | 0.00 | 0.29 | 0.00 | 58 | 1013.4 |
| 20260505185928 | 59 | 296 | 1.7 | 8.7 | 0.00 | 0.29 | 0.00 | 60 | 1013.4 |
| 20260505185828 | 59 | 80 | 1.7 | 8.7 | 0.00 | 0.29 | 0.00 | 59 | 1013.4 |
| 20260505185723 | 59 | 65 | 1.7 | 8.7 | 0.00 | 0.29 | 0.00 | 59 | 1013.4 |
| 20260505185618 | 59 | 63 | 1.7 | 8.7 | 0.00 | 0.29 | 0.00 | 59 | 1013.4 |
| 20260505185516 | 59 | 315 | 1.7 | 8.7 | 0.00 | 0.29 | 0.00 | 59 | 1013.4 |
| 20260505185427 | 59 | 317 | 1.7 | 8.7 | 0.00 | 0.29 | 0.00 | 59 | 1013.4 |
| 20260505185415 | 59 | 315 | 1.7 | 5.2 | 0.00 | 0.29 | 0.00 | 60 | 1013.4 |
| 20260505185325 | 59 | 296 | 1.7 | 4.3 | 0.00 | 0.29 | 0.00 | 60 | 1013.4 |
| 20260505185321 | 59 | 221 | 1.7 | 4.3 | 0.00 | 0.29 | 0.00 | 60 | 1013.4 |
| 20260505185101 | 59 | 278 | 1.7 | 4.3 | 0.00 | 0.29 | 0.00 | 61 | 1013.4 |
| 20260505185001 | 58 | 192 | 1.7 | 4.3 | 0.00 | 0.29 | 0.00 | 62 | 1013.4 |
| 20260505184927 | 58 | 194 | 1.7 | 4.3 | 0.00 | 0.29 | 0.00 | 62 | 1013.4 |
| 20260505184901 | 58 | 194 | 1.7 | 4.3 | 0.00 | 0.29 | 0.00 | 62 | 1013.4 |
| 20260505184758 | 58 | 119 | 1.7 | 4.3 | 0.00 | 0.29 | 0.00 | 63 | 1013.5 |
| 20260505184701 | 58 | 82 | 1.7 | 4.3 | 0.00 | 0.29 | 0.00 | 65 | 1013.5 |
| 20260505184656 | 57 | 148 | 1.7 | 4.3 | 0.00 | 0.29 | 0.00 | 64 | 1013.5 |
| 20260505184558 | 58 | 36 | 1.7 | 4.3 | 0.00 | 0.29 | 0.00 | 64 | 1013.5 |
| 20260505184530 | 57 | 213 | 1.7 | 4.3 | 0.00 | 0.29 | 0.00 | 64 | 1013.5 |
| 20260505184358 | 57 | 142 | 1.7 | 4.3 | 0.00 | 0.29 | 0.00 | 63 | 1013.5 |
| 20260505184251 | 57 | 157 | 1.7 | 4.3 | 0.00 | 0.29 | 0.00 | 63 | 1013.5 |
| 20260505184151 | 57 | 175 | 1.7 | 4.3 | 0.00 | 0.29 | 0.00 | 63 | 1013.5 |
| 20260505184051 | 57 | 174 | 1.7 | 4.3 | 0.00 | 0.29 | 0.00 | 64 | 1013.5 |
| 20260505183958 | 57 | 197 | 2.6 | 4.3 | 0.00 | 0.29 | 0.00 | 63 | 1013.5 |
| 20260505183953 | 57 | 196 | 2.6 | 4.3 | 0.00 | 0.29 | 0.00 | 63 | 1013.5 |
| 20260505183948 | 57 | 216 | 2.6 | 4.3 | 0.00 | 0.29 | 0.00 | 63 | 1013.5 |
| 20260505183738 | 57 | 275 | 2.6 | 4.3 | 0.00 | 0.29 | 0.00 | 62 | 1013.5 |
| 20260505183631 | 57 | 275 | 2.6 | 4.3 | 0.00 | 0.29 | 0.00 | 62 | 1013.5 |
| 20260505183530 | 57 | 297 | 2.6 | 4.3 | 0.00 | 0.29 | 0.00 | 62 | 1013.5 |
| 20260505183425 | 57 | 284 | 2.6 | 4.3 | 0.00 | 0.29 | 0.00 | 62 | 1013.5 |
| 20260505183326 | 57 | 29 | 2.6 | 5.2 | 0.00 | 0.29 | 0.00 | 62 | 1013.5 |
| 20260505183222 | 57 | 29 | 2.6 | 7.0 | 0.00 | 0.29 | 0.00 | 62 | 1013.5 |
| 20260505183123 | 57 | 342 | 2.6 | 7.0 | 0.00 | 0.29 | 0.00 | 63 | 1013.5 |
| 20260505183023 | 57 | 119 | 2.6 | 7.0 | 0.00 | 0.29 | 0.00 | 63 | 1013.5 |
| 20260505182918 | 57 | 195 | 1.7 | 7.0 | 0.00 | 0.29 | 0.00 | 63 | 1013.5 |
| 20260505182818 | 57 | 310 | 1.7 | 7.0 | 0.00 | 0.29 | 0.00 | 63 | 1013.5 |
| 20260505182718 | 57 | 294 | 1.7 | 7.0 | 0.00 | 0.29 | 0.00 | 62 | 1013.5 |
| 20260505182639 | 57 | 295 | 1.7 | 7.0 | 0.00 | 0.29 | 0.00 | 62 | 1013.5 |
| 20260505182635 | 57 | 47 | 1.7 | 7.0 | 0.00 | 0.29 | 0.00 | 63 | 1013.5 |
| 20260505182525 | 57 | 280 | 1.7 | 7.0 | 0.00 | 0.29 | 0.00 | 63 | 1013.5 |
| 20260505182520 | 57 | 246 | 1.7 | 7.0 | 0.00 | 0.29 | 0.00 | 62 | 1013.5 |
| 20260505182313 | 57 | 313 | 1.7 | 7.0 | 0.00 | 0.29 | 0.00 | 62 | 1013.5 |
| 20260505182225 | 57 | 315 | 1.7 | 6.1 | 0.00 | 0.29 | 0.00 | 63 | 1013.5 |
| 20260505182221 | 57 | 292 | 2.6 | 6.1 | 0.00 | 0.29 | 0.00 | 64 | 1013.5 |
| 20260505182217 | 57 | 324 | 1.7 | 6.1 | 0.00 | 0.29 | 0.00 | 63 | 1013.5 |
| 20260505182030 | 57 | 283 | 2.6 | 6.1 | 0.00 | 0.29 | 0.00 | 63 | 1013.5 |
| 20260505181908 | 57 | 248 | 2.6 | 4.3 | 0.00 | 0.29 | 0.00 | 64 | 1013.5 |
| 20260505181808 | 57 | 260 | 2.6 | 4.3 | 0.00 | 0.29 | 0.00 | 65 | 1013.3 |
| 20260505181708 | 57 | 344 | 2.6 | 4.3 | 0.00 | 0.29 | 0.00 | 65 | 1013.3 |
| 20260505181608 | 57 | 344 | 2.6 | 4.3 | 0.00 | 0.29 | 0.00 | 65 | 1013.3 |
| 20260505181503 | 57 | 344 | 2.6 | 5.2 | 0.00 | 0.29 | 0.00 | 66 | 1013.3 |
| 20260505181425 | 57 | 343 | 2.6 | 5.2 | 0.00 | 0.29 | 0.00 | 66 | 1013.3 |
| 20260505181403 | 57 | 344 | 2.6 | 5.2 | 0.00 | 0.29 | 0.00 | 66 | 1013.3 |
| 20260505181308 | 57 | 1 | 2.6 | 5.2 | 0.00 | 0.29 | 0.00 | 64 | 1013.3 |
| 20260505181304 | 57 | 344 | 2.6 | 5.2 | 0.00 | 0.29 | 0.00 | 65 | 1013.3 |
| 20260505181058 | 57 | 86 | 2.6 | 5.2 | 0.00 | 0.29 | 0.00 | 65 | 1013.3 |
| 20260505180958 | 57 | 51 | 1.7 | 5.2 | 0.00 | 0.29 | 0.00 | 65 | 1013.3 |
| 20260505180917 | 57 | 75 | 1.7 | 5.2 | 0.00 | 0.29 | 0.00 | 65 | 1013.3 |
| 20260505180858 | 57 | 81 | 1.7 | 5.2 | 0.00 | 0.29 | 0.00 | 65 | 1013.3 |
| 20260505180751 | 57 | 321 | 1.7 | 5.2 | 0.00 | 0.29 | 0.00 | 65 | 1013.3 |
| 20260505180651 | 56 | 166 | 1.7 | 5.2 | 0.00 | 0.29 | 0.00 | 64 | 1013.3 |
| 20260505180451 | 56 | 260 | 1.7 | 4.3 | 0.00 | 0.29 | 0.00 | 65 | 1013.3 |
| 20260505180417 | 56 | 253 | 1.7 | 4.3 | 0.00 | 0.29 | 0.00 | 65 | 1013.3 |
| 20260505180348 | 56 | 234 | 1.7 | 4.3 | 0.00 | 0.29 | 0.00 | 66 | 1013.3 |
| 20260505180248 | 56 | 208 | 1.7 | 4.3 | 0.00 | 0.29 | 0.00 | 67 | 1013.3 |
| 20260505180148 | 56 | 80 | 1.7 | 4.3 | 0.00 | 0.29 | 0.00 | 67 | 1013.3 |
| 20260505180058 | 56 | 268 | 2.6 | 4.3 | 0.00 | 0.29 | 0.00 | 69 | 1013.3 |
| 20260505180053 | 56 | 62 | 1.7 | 4.3 | 0.00 | 0.29 | 0.00 | 69 | 1013.3 |
| 20260505175914 | 56 | 267 | 2.6 | 4.3 | 0.00 | 0.29 | 0.00 | 70 | 1013.3 |
| 20260505175848 | 56 | 311 | 2.6 | 4.3 | 0.00 | 0.29 | 0.00 | 71 | 1013.3 |
| 20260505175758 | 56 | 43 | 2.6 | 4.3 | 0.00 | 0.29 | 0.00 | 72 | 1013.3 |
| 20260505175753 | 56 | 43 | 2.6 | 4.3 | 0.00 | 0.29 | 0.00 | 71 | 1013.3 |
| 20260505175557 | 56 | 16 | 2.6 | 4.3 | 0.00 | 0.29 | 0.00 | 71 | 1013.3 |
| 20260505175553 | 56 | 16 | 2.6 | 4.3 | 0.00 | 0.29 | 0.00 | 71 | 1013.3 |
| 20260505175414 | 56 | 56 | 2.6 | 4.3 | 0.00 | 0.29 | 0.00 | 71 | 1013.3 |
| 20260505175407 | 56 | 130 | 2.6 | 4.3 | 0.00 | 0.29 | 0.00 | 72 | 1013.3 |
| 20260505175403 | 56 | 155 | 2.6 | 5.2 | 0.00 | 0.29 | 0.00 | 72 | 1013.3 |
| 20260505175359 | 56 | 198 | 2.6 | 4.3 | 0.00 | 0.29 | 0.00 | 71 | 1013.3 |
| 20260505175048 | 56 | 154 | 2.6 | 5.2 | 0.00 | 0.29 | 0.00 | 71 | 1013.3 |
| 20260505174946 | 55 | 192 | 1.7 | 5.2 | 0.00 | 0.29 | 0.00 | 73 | 1013.3 |
| 20260505174914 | 55 | 111 | 1.7 | 5.2 | 0.00 | 0.29 | 0.00 | 75 | 1013.3 |
| 20260505174844 | 55 | 43 | 1.7 | 5.2 | 0.00 | 0.29 | 0.00 | 74 | 1013.3 |
| 20260505174748 | 55 | 336 | 1.7 | 5.2 | 0.00 | 0.29 | 0.00 | 74 | 1013.0 |
| 20260505174744 | 55 | 32 | 1.7 | 5.2 | 0.00 | 0.29 | 0.00 | 74 | 1013.0 |
| 20260505174538 | 55 | 76 | 1.7 | 5.2 | 0.00 | 0.29 | 0.00 | 75 | 1013.0 |
| 20260505174450 | 55 | 342 | 1.7 | 5.2 | 0.00 | 0.29 | 0.00 | 74 | 1013.0 |
| 20260505174446 | 55 | 20 | 1.7 | 5.2 | 0.00 | 0.29 | 0.00 | 75 | 1013.0 |
| 20260505174441 | 55 | 348 | 1.7 | 5.2 | 0.00 | 0.29 | 0.00 | 74 | 1013.0 |
| 20260505174237 | 55 | 342 | 1.7 | 5.2 | 0.00 | 0.29 | 0.00 | 74 | 1013.0 |
| 20260505174137 | 55 | 33 | 1.7 | 5.2 | 0.00 | 0.29 | 0.00 | 74 | 1013.0 |
| 20260505174036 | 54 | 161 | 1.7 | 5.2 | 0.00 | 0.29 | 0.00 | 74 | 1013.0 |
| 20260505173934 | 54 | 124 | 1.7 | 4.3 | 0.00 | 0.29 | 0.00 | 75 | 1013.0 |
| 20260505173906 | 54 | 147 | 1.7 | 4.3 | 0.00 | 0.29 | 0.00 | 74 | 1013.0 |
| 20260505173825 | 54 | 169 | 1.7 | 4.3 | 0.00 | 0.29 | 0.00 | 74 | 1013.0 |
| 20260505173733 | 54 | 215 | 1.7 | 4.3 | 0.00 | 0.29 | 0.00 | 73 | 1013.0 |
| 20260505173729 | 54 | 158 | 1.7 | 4.3 | 0.00 | 0.29 | 0.00 | 73 | 1013.0 |
| 20260505173523 | 54 | 215 | 1.7 | 4.3 | 0.00 | 0.29 | 0.00 | 73 | 1013.0 |
| 20260505173420 | 54 | 163 | 1.7 | 4.3 | 0.00 | 0.29 | 0.00 | 74 | 1013.0 |
| 20260505173407 | 54 | 164 | 1.7 | 4.3 | 0.00 | 0.29 | 0.00 | 75 | 1013.0 |
| 20260505173321 | 54 | 145 | 1.7 | 4.3 | 0.00 | 0.29 | 0.00 | 75 | 1013.0 |
| 20260505173218 | 54 | 181 | 1.7 | 4.3 | 0.00 | 0.29 | 0.00 | 75 | 1013.0 |
| 20260505173118 | 53 | 169 | 1.7 | 4.3 | 0.00 | 0.29 | 0.00 | 75 | 1013.0 |
| 20260505173018 | 53 | 170 | 1.7 | 4.3 | 0.00 | 0.29 | 0.00 | 75 | 1013.0 |
| 20260505172924 | 53 | 25 | 1.7 | 3.5 | 0.00 | 0.29 | 0.00 | 77 | 1013.0 |
| 20260505172918 | 53 | 171 | 1.7 | 4.3 | 0.00 | 0.29 | 0.00 | 75 | 1013.0 |
| 20260505172907 | 53 | 170 | 1.7 | 4.3 | 0.00 | 0.29 | 0.00 | 75 | 1013.0 |
| 20260505172818 | 53 | 176 | 1.7 | 4.3 | 0.00 | 0.29 | 0.00 | 75 | 1013.0 |
| 20260505172759 | 53 | 223 | 1.7 | 3.5 | 0.00 | 0.29 | 0.00 | 76 | 1013.0 |
| 20260505172618 | 53 | 166 | 1.7 | 3.5 | 0.00 | 0.29 | 0.00 | 77 | 1013.0 |
| 20260505172538 | 53 | 181 | 1.7 | 3.5 | 0.00 | 0.29 | 0.00 | 76 | 1013.0 |
| 20260505172534 | 53 | 22 | 1.7 | 3.5 | 0.00 | 0.29 | 0.00 | 77 | 1013.0 |
| 20260505172528 | 53 | 22 | 1.7 | 3.5 | 0.00 | 0.29 | 0.00 | 77 | 1013.0 |
| 20260505172213 | 53 | 181 | 1.7 | 3.5 | 0.00 | 0.29 | 0.00 | 76 | 1013.0 |
| 20260505172111 | 52 | 232 | 1.7 | 3.5 | 0.00 | 0.29 | 0.00 | 77 | 1013.0 |
| 20260505172010 | 52 | 302 | 1.7 | 3.5 | 0.00 | 0.29 | 0.00 | 77 | 1013.0 |
| 20260505171913 | 52 | 273 | 1.7 | 3.5 | 0.00 | 0.29 | 0.00 | 78 | 1013.0 |
| 20260505171907 | 52 | 274 | 1.7 | 3.5 | 0.00 | 0.29 | 0.00 | 78 | 1013.0 |
| 20260505171810 | 52 | 274 | 1.7 | 3.5 | 0.00 | 0.29 | 0.00 | 77 | 1013.0 |
| 20260505171710 | 52 | 280 | 1.7 | 3.5 | 0.00 | 0.29 | 0.00 | 77 | 1013.0 |
| 20260505171611 | 52 | 181 | 1.7 | 3.5 | 0.00 | 0.29 | 0.00 | 77 | 1013.0 |
| 20260505171510 | 52 | 181 | 1.7 | 3.5 | 0.00 | 0.29 | 0.00 | 77 | 1013.0 |
| 20260505171406 | 52 | 179 | 1.7 | 3.5 | 0.00 | 0.29 | 0.00 | 78 | 1013.0 |
| 20260505171309 | 52 | 178 | 1.7 | 3.5 | 0.00 | 0.29 | 0.00 | 78 | 1013.0 |
| 20260505171208 | 51 | 179 | 1.7 | 3.5 | 0.00 | 0.29 | 0.00 | 78 | 1013.0 |
| 20260505171106 | 51 | 179 | 1.7 | 3.5 | 0.00 | 0.29 | 0.00 | 78 | 1013.0 |
| 20260505171017 | 51 | 216 | 0.9 | 3.5 | 0.00 | 0.29 | 0.00 | 78 | 1013.0 |
| 20260505171013 | 51 | 183 | 0.9 | 3.5 | 0.00 | 0.29 | 0.00 | 78 | 1013.0 |
| 20260505171009 | 51 | 181 | 0.9 | 3.5 | 0.00 | 0.29 | 0.00 | 78 | 1013.0 |
| 20260505171004 | 51 | 218 | 0.9 | 3.5 | 0.00 | 0.29 | 0.00 | 78 | 1013.0 |
| 20260505170653 | 51 | 180 | 0.9 | 3.5 | 0.00 | 0.29 | 0.00 | 78 | 1013.0 |
| 20260505170554 | 51 | 178 | 0.9 | 3.5 | 0.00 | 0.29 | 0.00 | 78 | 1013.0 |
| 20260505170451 | 51 | 225 | 0.9 | 3.5 | 0.00 | 0.29 | 0.00 | 79 | 1013.0 |
| 20260505170348 | 51 | 225 | 0.9 | 3.5 | 0.00 | 0.29 | 0.00 | 78 | 1013.0 |
| 20260505170248 | 51 | 227 | 0.9 | 3.5 | 0.00 | 0.29 | 0.00 | 78 | 1012.9 |
| 20260505170145 | 51 | 193 | 0.9 | 3.5 | 0.00 | 0.29 | 0.00 | 80 | 1012.9 |
| 20260505170133 | 51 | 212 | 0.9 | 3.5 | 0.00 | 0.29 | 0.00 | 80 | 1012.9 |
| 20260505170128 | 51 | 115 | 0.9 | 2.6 | 0.00 | 0.29 | 0.00 | 80 | 1012.9 |
| 20260505165835 | 51 | 121 | 0.9 | 2.6 | 0.00 | 0.29 | 0.00 | 80 | 1012.9 |
| 20260505165735 | 50 | 121 | 0.9 | 2.6 | 0.00 | 0.29 | 0.00 | 80 | 1012.9 |
| 20260505165635 | 50 | 117 | 0.9 | 2.6 | 0.00 | 0.29 | 0.00 | 80 | 1012.9 |
| 20260505165535 | 50 | 117 | 0.9 | 2.6 | 0.00 | 0.29 | 0.00 | 80 | 1012.9 |
| 20260505165436 | 50 | 117 | 0.9 | 2.6 | 0.00 | 0.29 | 0.00 | 80 | 1012.9 |
| 20260505165330 | 50 | 185 | 0.9 | 2.6 | 0.00 | 0.29 | 0.00 | 80 | 1012.9 |
| 20260505165223 | 50 | 185 | 0.9 | 2.6 | 0.00 | 0.29 | 0.00 | 80 | 1012.9 |
| 20260505165114 | 50 | 185 | 0.9 | 2.6 | 0.00 | 0.29 | 0.00 | 80 | 1012.9 |
| 20260505165006 | 50 | 185 | 1.7 | 2.6 | 0.00 | 0.29 | 0.00 | 80 | 1012.9 |
| 20260505164906 | 50 | 185 | 1.7 | 2.6 | 0.00 | 0.29 | 0.00 | 80 | 1012.9 |
| 20260505164848 | 50 | 185 | 1.7 | 2.6 | 0.00 | 0.29 | 0.00 | 80 | 1012.9 |
| 20260505164803 | 50 | 185 | 1.7 | 3.5 | 0.00 | 0.29 | 0.00 | 81 | 1012.9 |
| 20260505164703 | 49 | 185 | 1.7 | 3.5 | 0.00 | 0.29 | 0.00 | 81 | 1012.9 |
| 20260505164621 | 49 | 185 | 1.7 | 3.5 | 0.00 | 0.29 | 0.00 | 80 | 1012.9 |
| 20260505164600 | 49 | 185 | 1.7 | 3.5 | 0.00 | 0.29 | 0.00 | 80 | 1012.9 |
| 20260505164500 | 49 | 185 | 1.7 | 3.5 | 0.00 | 0.29 | 0.00 | 80 | 1012.9 |
| 20260505164454 | 49 | 185 | 1.7 | 3.5 | 0.00 | 0.29 | 0.00 | 80 | 1012.9 |
| 20260505164216 | 49 | 185 | 1.7 | 3.5 | 0.00 | 0.29 | 0.00 | 80 | 1012.9 |
| 20260505164115 | 49 | 185 | 1.7 | 3.5 | 0.00 | 0.29 | 0.00 | 80 | 1012.9 |
| 20260505164008 | 49 | 185 | 1.7 | 3.5 | 0.00 | 0.29 | 0.00 | 80 | 1012.9 |
| 20260505163906 | 49 | 174 | 1.7 | 3.5 | 0.00 | 0.29 | 0.00 | 81 | 1012.9 |
| 20260505163847 | 49 | 173 | 1.7 | 3.5 | 0.00 | 0.29 | 0.00 | 81 | 1012.9 |
| 20260505163806 | 49 | 174 | 1.7 | 3.5 | 0.00 | 0.29 | 0.00 | 81 | 1012.9 |
| 20260505163703 | 49 | 173 | 1.7 | 3.5 | 0.00 | 0.29 | 0.00 | 81 | 1012.9 |
| 20260505163600 | 49 | 173 | 1.7 | 3.5 | 0.00 | 0.29 | 0.00 | 81 | 1012.9 |
| 20260505163458 | 49 | 169 | 1.7 | 3.5 | 0.00 | 0.29 | 0.00 | 81 | 1012.9 |
| 20260505163347 | 49 | 168 | 1.7 | 3.5 | 0.00 | 0.29 | 0.00 | 81 | 1012.9 |
| 20260505163256 | 49 | 170 | 1.7 | 3.5 | 0.00 | 0.29 | 0.00 | 81 | 1012.8 |
| 20260505163153 | 49 | 169 | 1.7 | 3.5 | 0.00 | 0.29 | 0.00 | 81 | 1012.8 |
| 20260505163053 | 49 | 170 | 1.7 | 3.5 | 0.00 | 0.29 | 0.00 | 81 | 1012.8 |
| 20260505162948 | 49 | 170 | 1.7 | 3.5 | 0.00 | 0.29 | 0.00 | 81 | 1012.8 |
| 20260505162844 | 49 | 169 | 1.7 | 3.5 | 0.00 | 0.29 | 0.00 | 81 | 1012.8 |
| 20260505162746 | 49 | 119 | 1.7 | 3.5 | 0.00 | 0.29 | 0.00 | 81 | 1012.8 |
| 20260505162638 | 49 | 104 | 1.7 | 3.5 | 0.00 | 0.29 | 0.00 | 81 | 1012.8 |
| 20260505162538 | 48 | 104 | 1.7 | 3.5 | 0.00 | 0.29 | 0.00 | 81 | 1012.8 |
| 20260505162438 | 48 | 103 | 1.7 | 3.5 | 0.00 | 0.29 | 0.00 | 81 | 1012.8 |
| 20260505162352 | 48 | 112 | 1.7 | 2.6 | 0.00 | 0.29 | 0.00 | 81 | 1012.8 |
| 20260505162342 | 48 | 112 | 1.7 | 2.6 | 0.00 | 0.29 | 0.00 | 81 | 1012.8 |
| 20260505162139 | 48 | 112 | 1.7 | 3.5 | 0.00 | 0.29 | 0.00 | 81 | 1012.8 |
| 20260505162031 | 48 | 112 | 1.7 | 4.3 | 0.00 | 0.29 | 0.00 | 81 | 1012.8 |
| 20260505161929 | 48 | 112 | 1.7 | 4.3 | 0.00 | 0.29 | 0.00 | 81 | 1012.8 |
| 20260505161821 | 48 | 112 | 1.7 | 4.3 | 0.00 | 0.29 | 0.00 | 81 | 1012.6 |
| 20260505161725 | 48 | 112 | 1.7 | 4.3 | 0.00 | 0.29 | 0.00 | 81 | 1012.6 |
| 20260505161626 | 48 | 112 | 1.7 | 4.3 | 0.00 | 0.29 | 0.00 | 81 | 1012.6 |
| 20260505161523 | 48 | 161 | 1.7 | 4.3 | 0.00 | 0.29 | 0.00 | 81 | 1012.6 |
| 20260505161423 | 48 | 161 | 1.7 | 4.3 | 0.00 | 0.29 | 0.00 | 81 | 1012.6 |
| 20260505161320 | 48 | 173 | 1.7 | 4.3 | 0.00 | 0.29 | 0.00 | 81 | 1012.6 |
| 20260505161201 | 48 | 173 | 1.7 | 4.3 | 0.00 | 0.29 | 0.00 | 81 | 1012.6 |
| 20260505161100 | 48 | 197 | 1.7 | 4.3 | 0.00 | 0.30 | 0.00 | 81 | 1012.6 |
| 20260505161001 | 48 | 200 | 0.9 | 3.5 | 0.00 | 0.30 | 0.00 | 81 | 1012.6 |
| 20260505160900 | 48 | 200 | 0.9 | 3.5 | 0.00 | 0.30 | 0.00 | 81 | 1012.6 |
| 20260505160809 | 48 | 200 | 0.9 | 3.5 | 0.00 | 0.30 | 0.00 | 81 | 1012.6 |
| 20260505160744 | 48 | 200 | 0.9 | 3.5 | 0.00 | 0.30 | 0.00 | 81 | 1012.6 |
| 20260505160641 | 48 | 200 | 0.9 | 3.5 | 0.00 | 0.30 | 0.00 | 81 | 1012.6 |
| 20260505160538 | 48 | 206 | 0.9 | 3.5 | 0.00 | 0.30 | 0.00 | 81 | 1012.6 |
| 20260505160433 | 48 | 84 | 0.9 | 3.5 | 0.00 | 0.30 | 0.00 | 81 | 1012.6 |
| 20260505160309 | 48 | 83 | 0.9 | 3.5 | 0.00 | 0.30 | 0.00 | 81 | 1012.5 |
| 20260505160225 | 48 | 83 | 0.9 | 3.5 | 0.00 | 0.30 | 0.00 | 81 | 1012.5 |
| 20260505160125 | 48 | 83 | 0.9 | 3.5 | 0.00 | 0.30 | 0.00 | 81 | 1012.5 |
| 20260505153344 | 47 | 154 | 0.9 | 3.5 | 0.00 | 0.32 | 0.00 | 81 | 1012.1 |
| 20260505153211 | 47 | 153 | 0.9 | 3.5 | 0.00 | 0.32 | 0.00 | 81 | 1012.1 |
| 20260505153109 | 47 | 214 | 0.9 | 3.5 | 0.00 | 0.32 | 0.00 | 81 | 1012.1 |
| 20260505153005 | 47 | 228 | 0.9 | 2.6 | 0.00 | 0.32 | 0.00 | 81 | 1012.1 |
| 20260505152903 | 47 | 228 | 0.9 | 2.6 | 0.00 | 0.32 | 0.00 | 82 | 1012.1 |
| 20260505152803 | 47 | 280 | 0.9 | 2.6 | 0.00 | 0.32 | 0.00 | 81 | 1012.1 |
| 20260505152734 | 47 | 280 | 0.9 | 2.6 | 0.00 | 0.32 | 0.00 | 81 | 1012.1 |
| 20260505152702 | 47 | 280 | 0.9 | 2.6 | 0.00 | 0.32 | 0.00 | 81 | 1012.1 |
| 20260505152652 | 47 | 280 | 0.9 | 2.6 | 0.00 | 0.32 | 0.00 | 81 | 1012.1 |
| 20260505152446 | 46 | 280 | 0.9 | 2.6 | 0.00 | 0.32 | 0.00 | 81 | 1012.1 |
| 20260505152345 | 46 | 280 | 0.9 | 2.6 | 0.00 | 0.32 | 0.00 | 81 | 1012.1 |
| 20260505152252 | 46 | 283 | 0.9 | 2.6 | 0.00 | 0.32 | 0.00 | 82 | 1012.1 |
| 20260505152242 | 46 | 280 | 0.9 | 2.6 | 0.00 | 0.32 | 0.00 | 82 | 1012.1 |
| 20260505152038 | 46 | 283 | 0.9 | 2.6 | 0.00 | 0.32 | 0.00 | 82 | 1012.1 |
| 20260505151938 | 46 | 283 | 1.7 | 2.6 | 0.00 | 0.32 | 0.00 | 81 | 1012.1 |
| 20260505151832 | 46 | 283 | 1.7 | 2.6 | 0.00 | 0.32 | 0.00 | 81 | 1012.1 |
| 20260505151723 | 46 | 283 | 1.7 | 3.5 | 0.00 | 0.32 | 0.00 | 82 | 1012.0 |
| 20260505151623 | 46 | 263 | 1.7 | 3.5 | 0.00 | 0.32 | 0.00 | 82 | 1012.0 |
| 20260505151518 | 46 | 263 | 1.7 | 3.5 | 0.00 | 0.32 | 0.00 | 82 | 1012.0 |
| 20260505151415 | 46 | 291 | 1.7 | 3.5 | 0.00 | 0.32 | 0.00 | 82 | 1012.0 |
| 20260505151312 | 46 | 291 | 1.7 | 3.5 | 0.00 | 0.32 | 0.00 | 82 | 1012.0 |
| 20260505151211 | 46 | 291 | 1.7 | 3.5 | 0.00 | 0.32 | 0.00 | 82 | 1012.0 |
| 20260505151110 | 46 | 291 | 1.7 | 3.5 | 0.00 | 0.32 | 0.00 | 82 | 1012.0 |
| 20260505151019 | 46 | 287 | 0.0 | 3.5 | 0.00 | 0.32 | 0.00 | 82 | 1012.0 |
| 20260505151015 | 46 | 287 | 1.7 | 3.5 | 0.00 | 0.32 | 0.00 | 82 | 1012.0 |
| 20260505150810 | 46 | 287 | 0.0 | 3.5 | 0.00 | 0.32 | 0.00 | 82 | 1012.0 |
| 20260505150711 | 46 | 288 | 0.0 | 3.5 | 0.00 | 0.32 | 0.00 | 82 | 1012.0 |
| 20260505150610 | 46 | 288 | 0.0 | 3.5 | 0.00 | 0.32 | 0.00 | 82 | 1012.0 |
| 20260505150510 | 46 | 288 | 0.0 | 3.5 | 0.00 | 0.32 | 0.00 | 82 | 1012.0 |
| 20260505150411 | 46 | 297 | 0.0 | 3.5 | 0.00 | 0.32 | 0.00 | 82 | 1012.0 |
| 20260505150308 | 46 | 297 | 0.0 | 2.6 | 0.00 | 0.32 | 0.00 | 82 | 1011.9 |
| 20260505150224 | 46 | 270 | 0.0 | 2.6 | 0.00 | 0.32 | 0.00 | 82 | 1011.9 |
| 20260505150208 | 46 | 270 | 0.0 | 2.6 | 0.00 | 0.32 | 0.00 | 81 | 1011.9 |
| 20260505140653 | 45 | 27 | 0.9 | 1.7 | 0.00 | 0.32 | 0.00 | 81 | 1011.5 |
| 20260505140607 | 45 | 27 | 0.9 | 1.7 | 0.00 | 0.32 | 0.00 | 81 | 1011.5 |
| 20260505140543 | 45 | 27 | 0.9 | 1.7 | 0.00 | 0.32 | 0.00 | 81 | 1011.5 |
| 20260505140430 | 45 | 27 | 0.9 | 1.7 | 0.00 | 0.32 | 0.00 | 81 | 1011.5 |
| 20260505140337 | 45 | 27 | 0.9 | 3.5 | 0.00 | 0.32 | 0.00 | 81 | 1011.3 |
| 20260505140330 | 45 | 27 | 0.9 | 3.5 | 0.00 | 0.32 | 0.00 | 81 | 1011.3 |
| 20260505140324 | 45 | 27 | 0.9 | 3.5 | 0.00 | 0.32 | 0.00 | 81 | 1011.3 |
| 20260505130248 | 45 | 194 | 0.0 | 3.5 | 0.00 | 0.32 | 0.00 | 81 | 1010.7 |
| 20260505130150 | 45 | 193 | 0.0 | 2.6 | 0.00 | 0.32 | 0.00 | 81 | 1010.7 |
| 20260505130146 | 45 | 193 | 0.0 | 3.5 | 0.00 | 0.32 | 0.00 | 81 | 1010.7 |
| 20260505125035 | 45 | 193 | 0.0 | 1.7 | 0.00 | 0.32 | 0.00 | 81 | 1010.7 |
| 20260505125005 | 45 | 193 | 0.0 | 1.7 | 0.00 | 0.32 | 0.00 | 81 | 1010.7 |
| 20260505124930 | 45 | 193 | 0.0 | 1.7 | 0.00 | 0.32 | 0.00 | 81 | 1010.7 |
| 20260505124810 | 45 | 194 | 0.0 | 1.7 | 0.00 | 0.32 | 0.00 | 81 | 1010.7 |
| 20260505124706 | 45 | 193 | 0.0 | 1.7 | 0.00 | 0.32 | 0.00 | 81 | 1010.7 |
| 20260505124605 | 45 | 194 | 0.0 | 1.7 | 0.00 | 0.32 | 0.00 | 81 | 1010.7 |
| 20260505124505 | 45 | 194 | 0.0 | 1.7 | 0.00 | 0.32 | 0.00 | 81 | 1010.7 |
| 20260505124456 | 45 | 194 | 0.0 | 1.7 | 0.00 | 0.32 | 0.00 | 81 | 1010.7 |
| 20260505124405 | 45 | 193 | 0.0 | 1.7 | 0.00 | 0.32 | 0.00 | 81 | 1010.7 |
| 20260505124258 | 45 | 193 | 0.0 | 1.7 | 0.00 | 0.32 | 0.00 | 81 | 1010.7 |
| 20260505124158 | 45 | 194 | 0.0 | 1.7 | 0.00 | 0.32 | 0.00 | 81 | 1010.7 |
| 20260505124058 | 45 | 194 | 0.0 | 1.7 | 0.00 | 0.32 | 0.00 | 81 | 1010.7 |
| 20260505123959 | 45 | 140 | 0.0 | 1.7 | 0.00 | 0.32 | 0.00 | 81 | 1010.7 |
| 20260505123954 | 45 | 141 | 0.0 | 1.7 | 0.00 | 0.32 | 0.00 | 81 | 1010.7 |
| 20260505123908 | 45 | 140 | 0.0 | 1.7 | 0.00 | 0.32 | 0.00 | 81 | 1010.7 |
| 20260505123904 | 45 | 141 | 0.0 | 1.7 | 0.00 | 0.32 | 0.00 | 81 | 1010.7 |
| 20260505123656 | 45 | 140 | 0.0 | 1.7 | 0.00 | 0.32 | 0.00 | 81 | 1010.7 |
| 20260505123555 | 45 | 141 | 0.0 | 1.7 | 0.00 | 0.32 | 0.00 | 81 | 1010.7 |
| 20260505123454 | 45 | 140 | 0.0 | 1.7 | 0.00 | 0.32 | 0.00 | 81 | 1010.7 |
| 20260505123343 | 45 | 140 | 0.0 | 1.7 | 0.00 | 0.32 | 0.00 | 81 | 1010.7 |
| 20260505123250 | 45 | 141 | 0.0 | 1.7 | 0.00 | 0.32 | 0.00 | 81 | 1010.7 |
| 20260505123246 | 45 | 140 | 0.0 | 1.7 | 0.00 | 0.32 | 0.00 | 81 | 1010.7 |
| 20260505123038 | 45 | 140 | 0.0 | 1.7 | 0.00 | 0.32 | 0.00 | 81 | 1010.7 |
| 20260505122944 | 45 | 140 | 0.0 | 1.7 | 0.00 | 0.32 | 0.00 | 81 | 1010.7 |
| 20260505122927 | 45 | 141 | 0.0 | 1.7 | 0.00 | 0.32 | 0.00 | 81 | 1010.7 |
| 20260505122822 | 45 | 140 | 0.0 | 1.7 | 0.00 | 0.32 | 0.00 | 81 | 1010.7 |
| 20260505122722 | 45 | 140 | 0.0 | 1.7 | 0.00 | 0.32 | 0.00 | 81 | 1010.7 |
| 20260505122608 | 45 | 140 | 0.0 | 1.7 | 0.00 | 0.32 | 0.00 | 81 | 1010.7 |
| 20260505122512 | 45 | 140 | 0.0 | 1.7 | 0.00 | 0.32 | 0.00 | 81 | 1010.7 |
| 20260505122508 | 45 | 140 | 0.0 | 1.7 | 0.00 | 0.32 | 0.00 | 81 | 1010.7 |
| 20260505122502 | 45 | 140 | 0.0 | 1.7 | 0.00 | 0.32 | 0.00 | 81 | 1010.7 |
| 20260505122259 | 45 | 140 | 0.0 | 1.7 | 0.00 | 0.32 | 0.00 | 81 | 1010.7 |
| 20260505122255 | 45 | 140 | 0.0 | 1.7 | 0.00 | 0.32 | 0.00 | 81 | 1010.7 |
| 20260505122028 | 45 | 140 | 0.0 | 1.7 | 0.00 | 0.32 | 0.00 | 81 | 1010.7 |
| 20260505121924 | 45 | 140 | 0.9 | 1.7 | 0.00 | 0.32 | 0.00 | 81 | 1010.7 |
| 20260505121806 | 45 | 140 | 0.9 | 1.7 | 0.00 | 0.32 | 0.00 | 81 | 1010.7 |
| 20260505121642 | 45 | 140 | 0.9 | 1.7 | 0.00 | 0.32 | 0.00 | 81 | 1010.7 |
| 20260505121636 | 45 | 140 | 0.9 | 1.7 | 0.00 | 0.32 | 0.00 | 81 | 1010.7 |
| 20260505121631 | 45 | 140 | 0.9 | 1.7 | 0.00 | 0.32 | 0.00 | 81 | 1010.7 |
| 20260505121403 | 45 | 140 | 0.9 | 1.7 | 0.00 | 0.32 | 0.00 | 81 | 1010.7 |
| 20260505121309 | 45 | 140 | 0.9 | 1.7 | 0.00 | 0.32 | 0.00 | 81 | 1010.7 |
| 20260505121210 | 45 | 140 | 0.9 | 1.7 | 0.00 | 0.32 | 0.00 | 81 | 1010.7 |
| 20260505121110 | 45 | 140 | 0.9 | 1.7 | 0.00 | 0.32 | 0.00 | 81 | 1010.7 |
| 20260505121010 | 45 | 140 | 0.9 | 2.6 | 0.00 | 0.32 | 0.00 | 81 | 1010.7 |
| 20260505120909 | 45 | 140 | 0.9 | 2.6 | 0.00 | 0.32 | 0.00 | 81 | 1010.7 |
| 20260505120845 | 45 | 140 | 0.9 | 2.6 | 0.00 | 0.32 | 0.00 | 81 | 1010.7 |
| 20260505120811 | 45 | 140 | 0.9 | 2.6 | 0.00 | 0.32 | 0.00 | 81 | 1010.7 |
| 20260505120703 | 45 | 140 | 0.9 | 2.6 | 0.00 | 0.32 | 0.00 | 81 | 1010.7 |
| 20260505120558 | 45 | 140 | 0.9 | 2.6 | 0.00 | 0.32 | 0.00 | 81 | 1010.7 |
| 20260505120552 | 45 | 140 | 0.9 | 2.6 | 0.00 | 0.32 | 0.00 | 81 | 1010.7 |
| 20260505120338 | 45 | 140 | 0.9 | 2.6 | 0.00 | 0.32 | 0.00 | 81 | 1010.7 |
| 20260505120243 | 45 | 140 | 0.9 | 2.6 | 0.00 | 0.32 | 0.00 | 81 | 1010.6 |
| 20260505120143 | 45 | 140 | 0.9 | 2.6 | 0.00 | 0.32 | 0.00 | 81 | 1010.6 |
| 20260505120040 | 45 | 183 | 0.9 | 2.6 | 0.00 | 0.32 | 0.00 | 81 | 1010.6 |
| 20260505115940 | 45 | 192 | 0.0 | 2.6 | 0.00 | 0.32 | 0.00 | 81 | 1010.6 |
| 20260505115840 | 45 | 192 | 0.0 | 2.6 | 0.00 | 0.32 | 0.00 | 81 | 1010.6 |
| 20260505115734 | 45 | 192 | 0.0 | 2.6 | 0.00 | 0.32 | 0.00 | 81 | 1010.6 |
| 20260505115633 | 44 | 192 | 0.0 | 2.6 | 0.00 | 0.32 | 0.00 | 81 | 1010.6 |
| 20260505115608 | 44 | 193 | 0.0 | 2.6 | 0.00 | 0.32 | 0.00 | 81 | 1010.6 |
| 20260505115521 | 44 | 192 | 0.0 | 2.6 | 0.00 | 0.32 | 0.00 | 81 | 1010.6 |
| 20260505115442 | 44 | 192 | 0.0 | 2.6 | 0.00 | 0.32 | 0.00 | 81 | 1010.6 |
| 20260505115320 | 44 | 193 | 0.0 | 2.6 | 0.00 | 0.32 | 0.00 | 81 | 1010.6 |
| 20260505115218 | 44 | 193 | 0.0 | 2.6 | 0.00 | 0.32 | 0.00 | 81 | 1010.6 |
| 20260505115116 | 44 | 192 | 0.0 | 2.6 | 0.00 | 0.32 | 0.00 | 81 | 1010.6 |
| 20260505115026 | 44 | 192 | 0.0 | 2.6 | 0.00 | 0.32 | 0.00 | 81 | 1010.6 |
| 20260505115022 | 44 | 198 | 0.0 | 1.7 | 0.00 | 0.32 | 0.00 | 81 | 1010.5 |
| 20260505115018 | 44 | 192 | 0.0 | 2.6 | 0.00 | 0.32 | 0.00 | 81 | 1010.6 |
| 20260505114907 | 44 | 196 | 0.0 | 2.6 | 0.00 | 0.32 | 0.00 | 81 | 1010.6 |
| 20260505114647 | 44 | 198 | 0.0 | 1.7 | 0.00 | 0.32 | 0.00 | 81 | 1010.5 |
| 20260505114527 | 44 | 198 | 0.0 | 1.7 | 0.00 | 0.32 | 0.00 | 81 | 1010.5 |
| 20260505114420 | 44 | 198 | 0.0 | 1.7 | 0.00 | 0.32 | 0.00 | 81 | 1010.5 |
| 20260505114415 | 44 | 198 | 0.0 | 1.7 | 0.00 | 0.32 | 0.00 | 81 | 1010.5 |
| 20260505114203 | 44 | 198 | 0.0 | 0.0 | 0.00 | 0.32 | 0.00 | 81 | 1010.5 |
| 20260505114046 | 44 | 198 | 0.0 | 0.0 | 0.00 | 0.32 | 0.00 | 81 | 1010.5 |
| 20260505113914 | 44 | 198 | 0.0 | 0.0 | 0.00 | 0.32 | 0.00 | 81 | 1010.5 |
| 20260505113815 | 44 | 198 | 0.0 | 0.0 | 0.00 | 0.32 | 0.00 | 81 | 1010.5 |
| 20260505113703 | 44 | 198 | 0.0 | 0.9 | 0.00 | 0.32 | 0.00 | 81 | 1010.5 |
| 20260505113528 | 44 | 198 | 0.0 | 0.9 | 0.00 | 0.32 | 0.00 | 81 | 1010.5 |
| 20260505113521 | 44 | 198 | 0.0 | 1.7 | 0.00 | 0.32 | 0.00 | 81 | 1010.6 |
| 20260505113428 | 44 | 198 | 0.0 | 0.9 | 0.00 | 0.32 | 0.00 | 81 | 1010.5 |
| 20260505113356 | 44 | 198 | 0.0 | 1.7 | 0.00 | 0.32 | 0.00 | 81 | 1010.6 |
| 20260505113152 | 44 | 198 | 0.0 | 1.7 | 0.00 | 0.32 | 0.00 | 81 | 1010.6 |
| 20260505113125 | 44 | 198 | 0.0 | 1.7 | 0.00 | 0.32 | 0.00 | 81 | 1010.6 |
| 20260505112943 | 44 | 198 | 0.0 | 1.7 | 0.00 | 0.32 | 0.00 | 81 | 1010.6 |
| 20260505112854 | 44 | 198 | 0.0 | 1.7 | 0.00 | 0.32 | 0.00 | 81 | 1010.6 |
| 20260505112738 | 44 | 198 | 0.0 | 1.7 | 0.00 | 0.32 | 0.00 | 81 | 1010.6 |
| 20260505112633 | 44 | 198 | 0.0 | 1.7 | 0.00 | 0.32 | 0.00 | 81 | 1010.6 |
| 20260505112509 | 44 | 198 | 0.0 | 1.7 | 0.00 | 0.32 | 0.00 | 81 | 1010.6 |
| 20260505112400 | 44 | 198 | 0.0 | 1.7 | 0.00 | 0.32 | 0.00 | 81 | 1010.6 |
| 20260505112259 | 44 | 198 | 0.0 | 0.0 | 0.00 | 0.32 | 0.00 | 81 | 1010.6 |
| 20260505112247 | 44 | 198 | 0.0 | 0.9 | 0.00 | 0.32 | 0.00 | 81 | 1010.6 |
| 20260505112153 | 44 | 198 | 0.0 | 1.7 | 0.00 | 0.32 | 0.00 | 81 | 1010.6 |
| 20260505112024 | 44 | 198 | 0.0 | 1.7 | 0.00 | 0.32 | 0.00 | 81 | 1010.6 |
| 20260505111916 | 44 | 198 | 0.0 | 1.7 | 0.00 | 0.32 | 0.00 | 81 | 1010.6 |
| 20260505111852 | 44 | 198 | 0.0 | 1.7 | 0.00 | 0.32 | 0.00 | 81 | 1010.7 |
| 20260505111721 | 44 | 198 | 0.0 | 1.7 | 0.00 | 0.32 | 0.00 | 81 | 1010.7 |
| 20260505111638 | 44 | 198 | 0.0 | 1.7 | 0.00 | 0.32 | 0.00 | 81 | 1010.7 |
| 20260505111530 | 44 | 198 | 0.0 | 1.7 | 0.00 | 0.32 | 0.00 | 81 | 1010.7 |
| 20260505111451 | 44 | 198 | 0.0 | 1.7 | 0.00 | 0.32 | 0.00 | 81 | 1010.7 |
| 20260505111403 | 44 | 198 | 0.0 | 1.7 | 0.00 | 0.32 | 0.00 | 81 | 1010.7 |
| 20260505111326 | 44 | 198 | 0.0 | 1.7 | 0.00 | 0.32 | 0.00 | 81 | 1010.7 |
| 20260505111145 | 44 | 198 | 0.0 | 1.7 | 0.00 | 0.32 | 0.00 | 81 | 1010.7 |
| 20260505111045 | 44 | 198 | 0.0 | 0.9 | 0.00 | 0.32 | 0.00 | 81 | 1010.7 |
| 20260505110939 | 44 | 198 | 0.0 | 0.9 | 0.00 | 0.32 | 0.00 | 81 | 1010.7 |
| 20260505110834 | 44 | 198 | 0.0 | 0.9 | 0.00 | 0.32 | 0.00 | 81 | 1010.7 |
| 20260505110708 | 44 | 198 | 0.0 | 0.9 | 0.00 | 0.32 | 0.00 | 81 | 1010.7 |
| 20260505110602 | 44 | 198 | 0.0 | 0.9 | 0.00 | 0.32 | 0.00 | 81 | 1010.7 |
| 20260505110457 | 44 | 198 | 0.0 | 0.9 | 0.00 | 0.32 | 0.00 | 81 | 1010.7 |
| 20260505110334 | 44 | 198 | 0.0 | 0.9 | 0.00 | 0.32 | 0.00 | 81 | 1010.7 |
| 20260505110208 | 44 | 198 | 0.0 | 0.9 | 0.00 | 0.32 | 0.00 | 81 | 1010.7 |
| 20260505110128 | 44 | 198 | 0.0 | 0.9 | 0.00 | 0.32 | 0.00 | 81 | 1010.7 |
| 20260505102220 | 44 | 198 | 0.0 | 1.7 | 0.00 | 0.32 | 0.00 | 81 | 1010.8 |
| 20260505102146 | 44 | 198 | 0.0 | 1.7 | 0.00 | 0.32 | 0.00 | 81 | 1010.8 |
| 20260505102052 | 44 | 198 | 0.0 | 1.7 | 0.00 | 0.32 | 0.00 | 81 | 1010.8 |
| 20260505101948 | 44 | 198 | 0.0 | 1.7 | 0.00 | 0.32 | 0.00 | 81 | 1010.8 |
| 20260505101840 | 44 | 198 | 0.0 | 1.7 | 0.00 | 0.32 | 0.00 | 81 | 1010.8 |
| 20260505101739 | 44 | 198 | 0.0 | 0.0 | 0.00 | 0.32 | 0.00 | 81 | 1010.8 |
| 20260505101643 | 44 | 198 | 0.0 | 1.7 | 0.00 | 0.32 | 0.00 | 81 | 1010.8 |
| 20260505101552 | 44 | 198 | 0.0 | 1.7 | 0.00 | 0.32 | 0.00 | 81 | 1010.8 |
| 20260505101451 | 44 | 198 | 0.0 | 1.7 | 0.00 | 0.32 | 0.00 | 81 | 1010.8 |
| 20260505101404 | 44 | 198 | 0.0 | 1.7 | 0.00 | 0.32 | 0.00 | 81 | 1010.8 |
| 20260505101106 | 44 | 198 | 0.0 | 1.7 | 0.00 | 0.32 | 0.00 | 81 | 1010.8 |
| 20260505100915 | 44 | 198 | 0.9 | 1.7 | 0.00 | 0.32 | 0.00 | 81 | 1010.8 |
| 20260505100816 | 44 | 198 | 0.9 | 1.7 | 0.00 | 0.32 | 0.00 | 81 | 1010.8 |
| 20260505100700 | 44 | 198 | 0.9 | 1.7 | 0.00 | 0.32 | 0.00 | 81 | 1010.8 |
| 20260505100647 | 44 | 198 | 0.9 | 1.7 | 0.00 | 0.32 | 0.00 | 81 | 1010.8 |
| 20260505100513 | 44 | 198 | 0.9 | 1.7 | 0.00 | 0.32 | 0.00 | 81 | 1010.8 |
| 20260505100442 | 44 | 198 | 0.9 | 1.7 | 0.00 | 0.32 | 0.00 | 81 | 1010.8 |
| 20260505100340 | 44 | 198 | 0.9 | 1.7 | 0.00 | 0.32 | 0.00 | 81 | 1010.8 |
| 20260505100237 | 44 | 198 | 0.9 | 1.7 | 0.00 | 0.32 | 0.00 | 81 | 1011.1 |
| 20260505100123 | 44 | 198 | 0.9 | 1.7 | 0.00 | 0.32 | 0.00 | 81 | 1011.1 |
| 20260505100009 | 44 | 198 | 0.9 | 1.7 | 0.00 | 0.32 | 0.00 | 81 | 1011.1 |
| 20260505100004 | 44 | 198 | 0.9 | 1.7 | 0.00 | 0.32 | 0.00 | 81 | 1011.1 |
| 20260505095759 | 44 | 198 | 0.9 | 1.7 | 0.00 | 0.32 | 0.00 | 81 | 1011.1 |
| 20260505095707 | 44 | 198 | 0.9 | 2.6 | 0.00 | 0.32 | 0.00 | 81 | 1011.1 |
| 20260505095703 | 44 | 198 | 0.9 | 1.7 | 0.00 | 0.32 | 0.00 | 81 | 1011.1 |
| 20260505095542 | 44 | 198 | 0.9 | 2.6 | 0.00 | 0.32 | 0.00 | 81 | 1011.1 |
| 20260505095324 | 44 | 198 | 0.9 | 2.6 | 0.00 | 0.32 | 0.00 | 81 | 1011.1 |
| 20260505095234 | 44 | 198 | 0.9 | 2.6 | 0.00 | 0.32 | 0.00 | 81 | 1011.1 |
| 20260505095230 | 44 | 197 | 0.9 | 2.6 | 0.00 | 0.32 | 0.00 | 81 | 1011.1 |
| 20260505095227 | 44 | 198 | 0.9 | 2.6 | 0.00 | 0.32 | 0.00 | 81 | 1011.1 |
| 20260505094951 | 44 | 254 | 0.9 | 2.6 | 0.00 | 0.32 | 0.00 | 81 | 1011.1 |
| 20260505094913 | 44 | 253 | 0.9 | 2.6 | 0.00 | 0.32 | 0.00 | 81 | 1011.1 |
| 20260505094828 | 44 | 253 | 0.9 | 2.6 | 0.00 | 0.32 | 0.00 | 81 | 1011.2 |
| 20260505094824 | 44 | 253 | 0.9 | 2.6 | 0.00 | 0.32 | 0.00 | 81 | 1011.2 |
| 20260505094715 | 44 | 252 | 0.9 | 2.6 | 0.00 | 0.32 | 0.00 | 81 | 1011.2 |
| 20260505094711 | 44 | 253 | 0.9 | 2.6 | 0.00 | 0.32 | 0.00 | 81 | 1011.2 |
| 20260505094444 | 44 | 252 | 0.9 | 1.7 | 0.00 | 0.32 | 0.00 | 81 | 1011.2 |
| 20260505094356 | 44 | 252 | 0.9 | 1.7 | 0.00 | 0.32 | 0.00 | 81 | 1011.2 |
| 20260505094228 | 44 | 252 | 0.9 | 1.7 | 0.00 | 0.32 | 0.00 | 81 | 1011.2 |
| 20260505094119 | 44 | 252 | 0.9 | 2.6 | 0.00 | 0.32 | 0.00 | 81 | 1011.2 |
| 20260505094114 | 44 | 252 | 0.9 | 2.6 | 0.00 | 0.32 | 0.00 | 81 | 1011.2 |
| 20260505093941 | 44 | 252 | 0.9 | 2.6 | 0.00 | 0.32 | 0.00 | 81 | 1011.2 |
| 20260505093900 | 44 | 252 | 0.9 | 2.6 | 0.00 | 0.32 | 0.00 | 81 | 1011.2 |
| 20260505093745 | 44 | 252 | 0.9 | 2.6 | 0.00 | 0.32 | 0.00 | 81 | 1011.2 |
| 20260505093742 | 44 | 252 | 0.9 | 2.6 | 0.00 | 0.32 | 0.00 | 81 | 1011.2 |
| 20260505093532 | 44 | 252 | 0.9 | 2.6 | 0.00 | 0.32 | 0.00 | 81 | 1011.2 |
| 20260505093431 | 44 | 252 | 0.9 | 2.6 | 0.00 | 0.32 | 0.00 | 81 | 1011.2 |
| 20260505093320 | 44 | 252 | 0.9 | 2.6 | 0.00 | 0.32 | 0.00 | 81 | 1010.9 |
| 20260505093213 | 44 | 252 | 0.9 | 2.6 | 0.00 | 0.32 | 0.00 | 81 | 1010.9 |
| 20260505093110 | 44 | 253 | 0.9 | 1.7 | 0.00 | 0.32 | 0.00 | 81 | 1010.9 |
| 20260505093010 | 44 | 253 | 0.9 | 1.7 | 0.00 | 0.32 | 0.00 | 81 | 1010.9 |
| 20260505092926 | 44 | 253 | 1.7 | 1.7 | 0.00 | 0.32 | 0.00 | 81 | 1010.9 |
| 20260505092901 | 44 | 253 | 1.7 | 1.7 | 0.00 | 0.32 | 0.00 | 81 | 1010.9 |
| 20260505092758 | 44 | 253 | 1.7 | 1.7 | 0.00 | 0.32 | 0.00 | 81 | 1010.9 |
| 20260505092753 | 44 | 253 | 1.7 | 1.7 | 0.00 | 0.32 | 0.00 | 81 | 1010.9 |
| 20260505092533 | 44 | 253 | 1.7 | 1.7 | 0.00 | 0.32 | 0.00 | 81 | 1010.9 |
| 20260505092526 | 44 | 253 | 1.7 | 1.7 | 0.00 | 0.32 | 0.00 | 81 | 1010.9 |
| 20260505092406 | 44 | 253 | 1.7 | 1.7 | 0.00 | 0.32 | 0.00 | 81 | 1010.9 |
| 20260505092320 | 44 | 253 | 1.7 | 2.6 | 0.00 | 0.32 | 0.00 | 81 | 1010.9 |
| 20260505092220 | 44 | 253 | 1.7 | 2.6 | 0.00 | 0.32 | 0.00 | 81 | 1010.9 |
| 20260505092107 | 44 | 267 | 1.7 | 2.6 | 0.00 | 0.32 | 0.00 | 81 | 1010.9 |
| 20260505092000 | 44 | 267 | 1.7 | 2.6 | 0.00 | 0.32 | 0.00 | 81 | 1010.9 |
| 20260505091832 | 44 | 267 | 1.7 | 2.6 | 0.00 | 0.32 | 0.00 | 81 | 1010.9 |
| 20260505091737 | 44 | 267 | 1.7 | 2.6 | 0.00 | 0.32 | 0.00 | 81 | 1010.9 |
| 20260505091724 | 44 | 290 | 1.7 | 2.6 | 0.00 | 0.32 | 0.00 | 81 | 1010.9 |
| 20260505091521 | 44 | 293 | 1.7 | 4.3 | 0.00 | 0.32 | 0.00 | 81 | 1010.9 |
| 20260505091420 | 44 | 292 | 1.7 | 4.3 | 0.00 | 0.32 | 0.00 | 81 | 1010.9 |
| 20260505091315 | 44 | 292 | 1.7 | 4.3 | 0.00 | 0.32 | 0.00 | 81 | 1010.9 |
| 20260505091256 | 44 | 255 | 1.7 | 4.3 | 0.00 | 0.32 | 0.00 | 81 | 1010.9 |
| 20260505091213 | 44 | 254 | 1.7 | 4.3 | 0.00 | 0.32 | 0.00 | 81 | 1010.9 |
| 20260505091112 | 43 | 229 | 1.7 | 4.3 | 0.00 | 0.32 | 0.00 | 81 | 1010.9 |
| 20260505091013 | 43 | 288 | 1.7 | 4.3 | 0.00 | 0.32 | 0.00 | 81 | 1010.9 |
| 20260505090912 | 43 | 287 | 1.7 | 4.3 | 0.00 | 0.32 | 0.00 | 81 | 1010.9 |
| 20260505090813 | 43 | 288 | 1.7 | 4.3 | 0.00 | 0.32 | 0.00 | 81 | 1010.9 |
| 20260505090757 | 43 | 287 | 1.7 | 4.3 | 0.00 | 0.32 | 0.00 | 81 | 1010.9 |
| 20260505090710 | 43 | 289 | 1.7 | 4.3 | 0.00 | 0.32 | 0.00 | 81 | 1010.9 |
| 20260505090610 | 43 | 285 | 1.7 | 4.3 | 0.00 | 0.32 | 0.00 | 81 | 1010.9 |
| 20260505090507 | 43 | 251 | 1.7 | 2.6 | 0.00 | 0.32 | 0.00 | 81 | 1010.9 |
| 20260505090405 | 43 | 249 | 1.7 | 2.6 | 0.00 | 0.32 | 0.00 | 81 | 1010.9 |
| 20260505090302 | 43 | 249 | 1.7 | 2.6 | 0.00 | 0.32 | 0.00 | 82 | 1011.2 |
| 20260505090256 | 43 | 249 | 1.7 | 2.6 | 0.00 | 0.32 | 0.00 | 81 | 1011.2 |
| 20260505090213 | 43 | 249 | 1.7 | 3.5 | 0.00 | 0.32 | 0.00 | 82 | 1011.2 |
| 20260505090208 | 43 | 249 | 1.7 | 2.6 | 0.00 | 0.32 | 0.00 | 82 | 1011.2 |
| 20260505085958 | 43 | 249 | 2.6 | 3.5 | 0.00 | 0.32 | 0.00 | 82 | 1011.2 |
| 20260505085857 | 43 | 243 | 2.6 | 3.5 | 0.00 | 0.32 | 0.00 | 82 | 1011.2 |
| 20260505085757 | 43 | 244 | 2.6 | 3.5 | 0.00 | 0.32 | 0.00 | 82 | 1011.2 |
| 20260505085748 | 43 | 243 | 2.6 | 3.5 | 0.00 | 0.32 | 0.00 | 82 | 1011.2 |
| 20260505085744 | 43 | 243 | 2.6 | 3.5 | 0.00 | 0.32 | 0.00 | 82 | 1011.2 |
| 20260505085510 | 43 | 243 | 2.6 | 7.0 | 0.00 | 0.32 | 0.00 | 82 | 1011.2 |
| 20260505085417 | 43 | 243 | 2.6 | 4.3 | 0.00 | 0.32 | 0.00 | 82 | 1011.2 |
| 20260505085344 | 43 | 243 | 2.6 | 4.3 | 0.00 | 0.32 | 0.00 | 82 | 1011.2 |
| 20260505085217 | 43 | 243 | 2.6 | 7.0 | 0.00 | 0.32 | 0.00 | 82 | 1011.2 |
| 20260505085117 | 43 | 243 | 2.6 | 7.0 | 0.00 | 0.32 | 0.00 | 82 | 1011.2 |
| 20260505085018 | 43 | 248 | 2.6 | 7.0 | 0.00 | 0.32 | 0.00 | 82 | 1011.2 |
| 20260505085012 | 43 | 248 | 2.6 | 7.0 | 0.00 | 0.32 | 0.00 | 82 | 1011.2 |
| 20260505084817 | 43 | 249 | 2.6 | 9.6 | 0.00 | 0.32 | 0.00 | 82 | 1011.3 |
| 20260505084812 | 43 | 248 | 2.6 | 9.6 | 0.00 | 0.32 | 0.00 | 82 | 1011.3 |
| 20260505084607 | 43 | 284 | 2.6 | 9.6 | 0.00 | 0.32 | 0.00 | 82 | 1011.3 |
| 20260505084524 | 43 | 291 | 2.6 | 9.6 | 0.00 | 0.32 | 0.00 | 82 | 1011.3 |
| 20260505084520 | 43 | 302 | 2.6 | 9.6 | 0.00 | 0.32 | 0.00 | 82 | 1011.3 |
| 20260505084516 | 43 | 249 | 2.6 | 9.6 | 0.00 | 0.32 | 0.00 | 82 | 1011.3 |
| 20260505084233 | 43 | 276 | 2.6 | 9.6 | 0.00 | 0.32 | 0.00 | 82 | 1011.3 |
| 20260505084203 | 43 | 251 | 2.6 | 9.6 | 0.00 | 0.32 | 0.00 | 82 | 1011.3 |
| 20260505084102 | 43 | 216 | 2.6 | 9.6 | 0.00 | 0.32 | 0.00 | 82 | 1011.3 |
| 20260505084010 | 43 | 248 | 1.7 | 9.6 | 0.00 | 0.32 | 0.00 | 82 | 1011.3 |
| 20260505084006 | 43 | 297 | 1.7 | 9.6 | 0.00 | 0.32 | 0.00 | 82 | 1011.3 |
| 20260505083757 | 43 | 281 | 1.7 | 8.7 | 0.00 | 0.32 | 0.00 | 82 | 1011.3 |
| 20260505083734 | 43 | 321 | 1.7 | 8.7 | 0.00 | 0.32 | 0.00 | 82 | 1011.3 |
| 20260505083658 | 43 | 301 | 1.7 | 8.7 | 0.00 | 0.32 | 0.00 | 82 | 1011.3 |
| 20260505083607 | 43 | 292 | 1.7 | 8.7 | 0.00 | 0.32 | 0.00 | 82 | 1011.3 |
| 20260505083603 | 43 | 271 | 1.7 | 8.7 | 0.00 | 0.32 | 0.00 | 82 | 1011.6 |
| 20260505083559 | 43 | 292 | 1.7 | 8.7 | 0.00 | 0.32 | 0.00 | 82 | 1011.3 |
| 20260505083449 | 43 | 295 | 1.7 | 8.7 | 0.00 | 0.32 | 0.00 | 82 | 1011.6 |
| 20260505083445 | 43 | 292 | 1.7 | 8.7 | 0.00 | 0.32 | 0.00 | 82 | 1011.3 |
| 20260505083152 | 43 | 311 | 1.7 | 6.1 | 0.00 | 0.32 | 0.00 | 82 | 1011.6 |
| 20260505083148 | 43 | 295 | 1.7 | 6.1 | 0.00 | 0.32 | 0.00 | 82 | 1011.6 |
| 20260505082942 | 43 | 148 | 0.9 | 3.5 | 0.00 | 0.32 | 0.00 | 81 | 1011.6 |
| 20260505082843 | 43 | 1 | 0.9 | 3.5 | 0.00 | 0.32 | 0.00 | 81 | 1011.6 |
| 20260505082734 | 43 | 223 | 0.9 | 3.5 | 0.00 | 0.32 | 0.00 | 81 | 1011.6 |
| 20260505082638 | 43 | 223 | 0.9 | 3.5 | 0.00 | 0.32 | 0.00 | 81 | 1011.6 |
| 20260505082537 | 43 | 224 | 0.9 | 3.5 | 0.00 | 0.32 | 0.00 | 81 | 1011.6 |
| 20260505082437 | 43 | 223 | 0.9 | 3.5 | 0.00 | 0.32 | 0.00 | 81 | 1011.6 |
| 20260505082335 | 43 | 223 | 0.9 | 3.5 | 0.00 | 0.32 | 0.00 | 81 | 1011.6 |
| 20260505082321 | 44 | 299 | 1.7 | 1.7 | 0.00 | 0.32 | 0.00 | 81 | 1011.5 |
| 20260505082235 | 43 | 291 | 0.9 | 3.5 | 0.00 | 0.32 | 0.00 | 81 | 1011.6 |
| 20260505082155 | 43 | 291 | 0.9 | 3.5 | 0.00 | 0.32 | 0.00 | 81 | 1011.6 |
| 20260505082028 | 43 | 291 | 0.9 | 2.6 | 0.00 | 0.32 | 0.00 | 81 | 1011.6 |
| 20260505081934 | 44 | 299 | 1.7 | 1.7 | 0.00 | 0.32 | 0.00 | 81 | 1011.5 |
| 20260505081930 | 43 | 299 | 1.7 | 1.7 | 0.00 | 0.32 | 0.00 | 81 | 1011.6 |
| 20260505081925 | 44 | 299 | 1.7 | 1.7 | 0.00 | 0.32 | 0.00 | 81 | 1011.5 |
| 20260505081613 | 44 | 299 | 1.7 | 1.7 | 0.00 | 0.32 | 0.00 | 82 | 1011.5 |
| 20260505081513 | 44 | 299 | 1.7 | 1.7 | 0.00 | 0.32 | 0.00 | 82 | 1011.5 |
| 20260505081457 | 44 | 299 | 1.7 | 2.6 | 0.00 | 0.32 | 0.00 | 82 | 1011.5 |
| 20260505081412 | 44 | 299 | 1.7 | 1.7 | 0.00 | 0.32 | 0.00 | 82 | 1011.5 |
| 20260505081332 | 44 | 299 | 1.7 | 1.7 | 0.00 | 0.32 | 0.00 | 82 | 1011.5 |
| 20260505081200 | 44 | 299 | 1.7 | 4.3 | 0.00 | 0.32 | 0.00 | 82 | 1011.5 |
| 20260505081126 | 44 | 299 | 1.7 | 4.3 | 0.00 | 0.32 | 0.00 | 82 | 1011.5 |
| 20260505081122 | 44 | 299 | 1.7 | 4.3 | 0.00 | 0.32 | 0.00 | 82 | 1011.5 |
| 20260505080810 | 44 | 301 | 1.7 | 5.2 | 0.00 | 0.32 | 0.00 | 82 | 1011.5 |
| 20260505080708 | 44 | 301 | 1.7 | 5.2 | 0.00 | 0.32 | 0.00 | 82 | 1011.5 |
| 20260505080607 | 44 | 301 | 1.7 | 5.2 | 0.00 | 0.32 | 0.00 | 82 | 1011.5 |
| 20260505080505 | 44 | 301 | 1.7 | 5.2 | 0.00 | 0.32 | 0.00 | 82 | 1011.5 |
| 20260505080426 | 44 | 244 | 1.7 | 5.2 | 0.00 | 0.32 | 0.00 | 82 | 1011.4 |
| 20260505080421 | 44 | 249 | 1.7 | 5.2 | 0.00 | 0.32 | 0.00 | 82 | 1011.4 |
| 20260505080417 | 44 | 301 | 1.7 | 5.2 | 0.00 | 0.32 | 0.00 | 82 | 1011.5 |
| 20260505080302 | 44 | 301 | 1.7 | 5.2 | 0.00 | 0.32 | 0.00 | 82 | 1011.4 |
| 20260505075952 | 44 | 286 | 1.7 | 5.2 | 0.00 | 0.32 | 0.00 | 82 | 1011.4 |
| 20260505075909 | 44 | 309 | 1.7 | 3.5 | 0.00 | 0.32 | 0.00 | 81 | 1011.4 |
| 20260505075904 | 44 | 317 | 1.7 | 5.2 | 0.00 | 0.32 | 0.00 | 82 | 1011.4 |
| 20260505075755 | 44 | 279 | 1.7 | 4.3 | 0.00 | 0.32 | 0.00 | 82 | 1011.4 |
| 20260505075749 | 44 | 278 | 1.7 | 4.3 | 0.00 | 0.32 | 0.00 | 82 | 1011.4 |
| 20260505075545 | 44 | 322 | 1.7 | 3.5 | 0.00 | 0.32 | 0.00 | 81 | 1011.4 |
| 20260505075442 | 44 | 290 | 1.7 | 3.5 | 0.00 | 0.32 | 0.00 | 81 | 1011.4 |
| 20260505075340 | 44 | 300 | 1.7 | 2.6 | 0.00 | 0.32 | 0.00 | 81 | 1011.4 |
| 20260505075237 | 44 | 300 | 1.7 | 2.6 | 0.00 | 0.32 | 0.00 | 81 | 1011.4 |
| 20260505075212 | 44 | 321 | 1.7 | 2.6 | 0.00 | 0.32 | 0.00 | 81 | 1011.4 |
| 20260505075137 | 44 | 321 | 1.7 | 2.6 | 0.00 | 0.32 | 0.00 | 81 | 1011.4 |
| 20260505075038 | 44 | 321 | 1.7 | 2.6 | 0.00 | 0.32 | 0.00 | 81 | 1011.4 |
| 20260505074937 | 44 | 321 | 1.7 | 2.6 | 0.00 | 0.32 | 0.00 | 81 | 1011.4 |
| 20260505074835 | 44 | 321 | 1.7 | 2.6 | 0.00 | 0.32 | 0.00 | 81 | 1011.4 |
| 20260505074704 | 44 | 321 | 1.7 | 3.5 | 0.00 | 0.32 | 0.00 | 81 | 1011.8 |
| 20260505074620 | 44 | 279 | 1.7 | 3.5 | 0.00 | 0.32 | 0.00 | 81 | 1011.8 |
| 20260505074520 | 44 | 279 | 1.7 | 3.5 | 0.00 | 0.32 | 0.00 | 81 | 1011.8 |
| 20260505074410 | 44 | 279 | 1.7 | 3.5 | 0.00 | 0.32 | 0.00 | 81 | 1011.8 |
| 20260505074309 | 44 | 279 | 1.7 | 3.5 | 0.00 | 0.32 | 0.00 | 81 | 1011.8 |
| 20260505074205 | 44 | 278 | 1.7 | 3.5 | 0.00 | 0.32 | 0.00 | 81 | 1011.8 |
| 20260505074102 | 44 | 320 | 1.7 | 3.5 | 0.00 | 0.32 | 0.00 | 81 | 1011.8 |
| 20260505074002 | 44 | 287 | 1.7 | 3.5 | 0.00 | 0.32 | 0.00 | 81 | 1011.8 |
| 20260505073845 | 44 | 287 | 1.7 | 3.5 | 0.00 | 0.32 | 0.00 | 81 | 1011.8 |
| 20260505073735 | 44 | 285 | 1.7 | 3.5 | 0.00 | 0.32 | 0.00 | 81 | 1011.8 |
| 20260505073704 | 44 | 285 | 1.7 | 3.5 | 0.00 | 0.32 | 0.00 | 81 | 1011.8 |
| 20260505073645 | 44 | 285 | 1.7 | 3.5 | 0.00 | 0.32 | 0.00 | 81 | 1011.8 |
| 20260505073641 | 44 | 285 | 1.7 | 3.5 | 0.00 | 0.32 | 0.00 | 81 | 1011.8 |
| 20260505073428 | 44 | 285 | 1.7 | 3.5 | 0.00 | 0.32 | 0.00 | 81 | 1011.8 |
| 20260505073337 | 44 | 283 | 1.7 | 3.5 | 0.00 | 0.32 | 0.00 | 81 | 1012.0 |
| 20260505073333 | 44 | 284 | 1.7 | 3.5 | 0.00 | 0.32 | 0.00 | 81 | 1012.0 |
| 20260505073201 | 44 | 283 | 1.7 | 3.5 | 0.00 | 0.32 | 0.00 | 81 | 1012.0 |
| 20260505073127 | 44 | 333 | 1.7 | 3.5 | 0.00 | 0.32 | 0.00 | 81 | 1012.0 |
| 20260505073007 | 44 | 332 | 0.9 | 3.5 | 0.00 | 0.32 | 0.00 | 81 | 1012.0 |
| 20260505072902 | 44 | 340 | 0.9 | 3.5 | 0.00 | 0.32 | 0.00 | 81 | 1012.0 |
| 20260505072803 | 44 | 340 | 0.9 | 3.5 | 0.00 | 0.32 | 0.00 | 81 | 1012.0 |
| 20260505072703 | 44 | 341 | 0.9 | 3.5 | 0.00 | 0.32 | 0.00 | 81 | 1012.0 |
| 20260505072557 | 44 | 267 | 0.9 | 2.6 | 0.00 | 0.32 | 0.00 | 81 | 1012.0 |
| 20260505072500 | 44 | 267 | 0.9 | 2.6 | 0.00 | 0.32 | 0.00 | 81 | 1012.0 |
| 20260505072456 | 44 | 267 | 0.9 | 2.6 | 0.00 | 0.32 | 0.00 | 81 | 1012.0 |
| 20260505072239 | 44 | 267 | 0.9 | 2.6 | 0.00 | 0.32 | 0.00 | 81 | 1012.0 |
| 20260505072133 | 44 | 267 | 0.9 | 2.6 | 0.00 | 0.32 | 0.00 | 81 | 1012.0 |
| 20260505072027 | 44 | 267 | 0.9 | 2.6 | 0.00 | 0.32 | 0.00 | 81 | 1012.0 |
| 20260505071927 | 44 | 267 | 1.7 | 1.7 | 0.00 | 0.32 | 0.00 | 81 | 1011.6 |
| 20260505071923 | 44 | 267 | 1.7 | 2.6 | 0.00 | 0.32 | 0.00 | 81 | 1012.0 |
| 20260505071705 | 44 | 267 | 1.7 | 1.7 | 0.00 | 0.32 | 0.00 | 81 | 1011.6 |
| 20260505071653 | 44 | 267 | 1.7 | 1.7 | 0.00 | 0.32 | 0.00 | 81 | 1011.6 |
| 20260505071605 | 44 | 267 | 1.7 | 1.7 | 0.00 | 0.32 | 0.00 | 81 | 1011.6 |
| 20260505071511 | 44 | 267 | 1.7 | 2.6 | 0.00 | 0.32 | 0.00 | 81 | 1011.6 |
| 20260505071507 | 44 | 267 | 1.7 | 1.7 | 0.00 | 0.32 | 0.00 | 81 | 1011.6 |
| 20260505071358 | 44 | 267 | 1.7 | 2.6 | 0.00 | 0.32 | 0.00 | 81 | 1011.6 |
| 20260505071152 | 44 | 267 | 1.7 | 2.6 | 0.00 | 0.32 | 0.00 | 81 | 1011.6 |
| 20260505071039 | 44 | 267 | 1.7 | 2.6 | 0.00 | 0.32 | 0.00 | 81 | 1011.6 |
| 20260505070913 | 44 | 267 | 1.7 | 2.6 | 0.00 | 0.32 | 0.00 | 81 | 1011.6 |
| 20260505070809 | 44 | 267 | 1.7 | 2.6 | 0.00 | 0.32 | 0.00 | 81 | 1011.6 |
| 20260505070804 | 44 | 267 | 1.7 | 2.6 | 0.00 | 0.32 | 0.00 | 81 | 1011.6 |
| 20260505070655 | 44 | 267 | 1.7 | 2.6 | 0.00 | 0.32 | 0.00 | 81 | 1011.6 |
| 20260505070553 | 44 | 267 | 1.7 | 2.6 | 0.00 | 0.32 | 0.00 | 81 | 1011.6 |
| 20260505070450 | 44 | 267 | 1.7 | 2.6 | 0.00 | 0.32 | 0.00 | 81 | 1011.6 |
| 20260505070345 | 44 | 267 | 1.7 | 2.6 | 0.00 | 0.32 | 0.00 | 81 | 1011.6 |
| 20260505070237 | 44 | 267 | 1.7 | 2.6 | 0.00 | 0.32 | 0.00 | 81 | 1011.5 |
| 20260505070132 | 44 | 267 | 1.7 | 2.6 | 0.00 | 0.32 | 0.00 | 81 | 1011.5 |
| 20260505070017 | 44 | 267 | 1.7 | 2.6 | 0.00 | 0.32 | 0.00 | 81 | 1011.5 |
| 20260505065918 | 44 | 267 | 0.9 | 2.6 | 0.00 | 0.32 | 0.32 | 81 | 1011.5 |
| 20260505065815 | 44 | 267 | 0.9 | 2.6 | 0.00 | 0.32 | 0.32 | 81 | 1011.5 |
| 20260505065710 | 44 | 267 | 0.9 | 2.6 | 0.00 | 0.32 | 0.32 | 81 | 1011.5 |
| 20260505065648 | 44 | 267 | 0.9 | 2.6 | 0.00 | 0.32 | 0.32 | 81 | 1011.5 |
| 20260505065610 | 44 | 267 | 0.9 | 2.6 | 0.00 | 0.32 | 0.32 | 81 | 1011.5 |
| 20260505065510 | 44 | 267 | 0.9 | 2.6 | 0.00 | 0.32 | 0.32 | 81 | 1011.5 |
| 20260505065417 | 44 | 267 | 0.9 | 2.6 | 0.00 | 0.32 | 0.32 | 81 | 1011.5 |
| 20260505065413 | 44 | 267 | 0.9 | 2.6 | 0.00 | 0.32 | 0.32 | 81 | 1011.5 |
| 20260505065409 | 44 | 267 | 0.9 | 2.6 | 0.00 | 0.32 | 0.32 | 81 | 1011.5 |
| 20260505065251 | 44 | 267 | 0.9 | 2.6 | 0.00 | 0.32 | 0.32 | 81 | 1011.5 |
| 20260505065053 | 44 | 267 | 0.9 | 2.6 | 0.00 | 0.32 | 0.32 | 81 | 1011.5 |
| 20260505064950 | 44 | 127 | 1.7 | 2.6 | 0.00 | 0.32 | 0.32 | 81 | 1011.5 |
| 20260505064850 | 44 | 127 | 1.7 | 2.6 | 0.00 | 0.32 | 0.32 | 81 | 1011.5 |
| 20260505064750 | 44 | 127 | 1.7 | 2.6 | 0.00 | 0.32 | 0.32 | 81 | 1010.9 |
| 20260505064632 | 44 | 126 | 1.7 | 2.6 | 0.00 | 0.32 | 0.32 | 81 | 1010.9 |
| 20260505064549 | 44 | 125 | 1.7 | 2.6 | 0.00 | 0.32 | 0.32 | 81 | 1010.9 |
| 20260505064447 | 44 | 162 | 1.7 | 3.5 | 0.00 | 0.32 | 0.32 | 81 | 1010.9 |
| 20260505064424 | 44 | 162 | 1.7 | 3.5 | 0.00 | 0.32 | 0.32 | 81 | 1010.9 |
| 20260505064347 | 44 | 162 | 1.7 | 3.5 | 0.00 | 0.32 | 0.32 | 81 | 1010.9 |
| 20260505064311 | 44 | 162 | 1.7 | 3.5 | 0.00 | 0.32 | 0.32 | 81 | 1010.9 |
| 20260505064307 | 44 | 162 | 0.9 | 3.5 | 0.00 | 0.32 | 0.32 | 81 | 1010.9 |
| 20260505064303 | 44 | 162 | 1.7 | 3.5 | 0.00 | 0.32 | 0.32 | 81 | 1010.9 |
| 20260505064257 | 44 | 162 | 1.7 | 3.5 | 0.00 | 0.32 | 0.32 | 81 | 1010.9 |
| 20260505063840 | 44 | 163 | 0.9 | 3.5 | 0.00 | 0.32 | 0.32 | 81 | 1010.9 |
| 20260505063737 | 44 | 163 | 0.9 | 3.5 | 0.00 | 0.32 | 0.32 | 81 | 1010.9 |
| 20260505063651 | 44 | 166 | 0.9 | 3.5 | 0.00 | 0.32 | 0.32 | 81 | 1010.9 |
| 20260505063642 | 44 | 166 | 0.9 | 3.5 | 0.00 | 0.32 | 0.32 | 81 | 1010.9 |
| 20260505063432 | 44 | 170 | 0.9 | 3.5 | 0.00 | 0.32 | 0.32 | 81 | 1010.9 |
| 20260505063332 | 44 | 43 | 0.9 | 2.6 | 0.00 | 0.32 | 0.32 | 81 | 1010.9 |
| 20260505063248 | 44 | 43 | 0.9 | 1.7 | 0.00 | 0.32 | 0.32 | 81 | 1010.8 |
| 20260505063244 | 44 | 43 | 0.9 | 2.6 | 0.00 | 0.32 | 0.32 | 81 | 1010.8 |
| 20260505063131 | 44 | 43 | 0.9 | 2.6 | 0.00 | 0.32 | 0.32 | 81 | 1010.8 |
| 20260505062915 | 44 | 43 | 0.9 | 1.7 | 0.00 | 0.32 | 0.32 | 81 | 1010.8 |
| 20260505062803 | 44 | 43 | 0.9 | 1.7 | 0.00 | 0.32 | 0.32 | 81 | 1010.8 |
| 20260505062631 | 44 | 43 | 0.9 | 1.7 | 0.00 | 0.32 | 0.32 | 81 | 1010.8 |
| 20260505062557 | 44 | 43 | 0.9 | 1.7 | 0.00 | 0.32 | 0.32 | 81 | 1010.8 |
| 20260505062455 | 44 | 43 | 0.9 | 1.7 | 0.00 | 0.32 | 0.32 | 81 | 1010.8 |
| 20260505062354 | 45 | 43 | 0.9 | 1.7 | 0.00 | 0.32 | 0.32 | 81 | 1010.8 |
| 20260505062227 | 45 | 43 | 0.9 | 1.7 | 0.00 | 0.32 | 0.32 | 81 | 1010.8 |
| 20260505062128 | 45 | 43 | 0.9 | 2.6 | 0.00 | 0.32 | 0.32 | 81 | 1010.8 |
| 20260505062123 | 44 | 43 | 0.9 | 2.6 | 0.00 | 0.32 | 0.32 | 81 | 1010.8 |
| 20260505062027 | 45 | 43 | 0.9 | 2.6 | 0.00 | 0.32 | 0.32 | 81 | 1010.8 |
| 20260505061911 | 45 | 43 | 1.7 | 2.6 | 0.00 | 0.32 | 0.32 | 81 | 1010.8 |
| 20260505061804 | 45 | 43 | 1.7 | 3.5 | 0.00 | 0.32 | 0.32 | 81 | 1010.7 |
| 20260505061658 | 44 | 43 | 1.7 | 3.5 | 0.00 | 0.32 | 0.32 | 81 | 1010.7 |
| 20260505061647 | 45 | 43 | 1.7 | 3.5 | 0.00 | 0.32 | 0.32 | 81 | 1010.7 |
| 20260505061643 | 45 | 43 | 1.7 | 3.5 | 0.00 | 0.32 | 0.32 | 81 | 1010.7 |
| 20260505061639 | 45 | 43 | 1.7 | 3.5 | 0.00 | 0.32 | 0.32 | 81 | 1010.7 |
| 20260505061412 | 44 | 43 | 1.7 | 3.5 | 0.00 | 0.32 | 0.32 | 81 | 1010.7 |
| 20260505061218 | 45 | 43 | 1.7 | 3.5 | 0.00 | 0.32 | 0.32 | 81 | 1010.7 |
| 20260505061214 | 45 | 43 | 1.7 | 3.5 | 0.00 | 0.32 | 0.32 | 81 | 1010.7 |
| 20260505061205 | 45 | 43 | 1.7 | 3.5 | 0.00 | 0.32 | 0.32 | 81 | 1010.7 |
| 20260505060852 | 45 | 43 | 1.7 | 3.5 | 0.00 | 0.32 | 0.32 | 81 | 1010.7 |
| 20260505060745 | 45 | 19 | 1.7 | 3.5 | 0.00 | 0.32 | 0.32 | 81 | 1010.7 |
| 20260505060653 | 45 | 320 | 1.7 | 3.5 | 0.00 | 0.32 | 0.32 | 81 | 1010.7 |
| 20260505060649 | 45 | 353 | 1.7 | 3.5 | 0.00 | 0.32 | 0.32 | 81 | 1010.7 |
| 20260505060644 | 45 | 320 | 1.7 | 2.6 | 0.00 | 0.32 | 0.32 | 81 | 1010.7 |
| 20260505060432 | 45 | 320 | 1.7 | 3.5 | 0.00 | 0.32 | 0.32 | 81 | 1010.7 |
| 20260505060330 | 45 | 320 | 1.7 | 3.5 | 0.00 | 0.32 | 0.32 | 81 | 1010.8 |
| 20260505060229 | 45 | 320 | 1.7 | 3.5 | 0.00 | 0.32 | 0.32 | 81 | 1010.8 |
| 20260505060106 | 45 | 320 | 1.7 | 3.5 | 0.00 | 0.32 | 0.32 | 81 | 1010.8 |
| 20260505060024 | 45 | 320 | 1.7 | 3.5 | 0.00 | 0.32 | 0.32 | 81 | 1010.8 |
| 20260505055924 | 45 | 320 | 1.7 | 3.5 | 0.00 | 0.32 | 0.32 | 81 | 1010.8 |
| 20260505055747 | 45 | 320 | 1.7 | 3.5 | 0.00 | 0.32 | 0.32 | 81 | 1010.8 |
| 20260505055701 | 45 | 311 | 1.7 | 4.3 | 0.00 | 0.32 | 0.32 | 81 | 1010.8 |
| 20260505055657 | 45 | 320 | 1.7 | 3.5 | 0.00 | 0.32 | 0.32 | 81 | 1010.8 |
| 20260505055652 | 45 | 320 | 1.7 | 3.5 | 0.00 | 0.32 | 0.32 | 81 | 1010.8 |
| 20260505055337 | 45 | 243 | 1.7 | 4.3 | 0.00 | 0.32 | 0.32 | 81 | 1010.8 |
| 20260505055236 | 45 | 242 | 1.7 | 4.3 | 0.00 | 0.32 | 0.32 | 81 | 1010.8 |
| 20260505055135 | 45 | 242 | 1.7 | 4.3 | 0.00 | 0.32 | 0.32 | 81 | 1010.8 |
| 20260505055059 | 45 | 242 | 1.7 | 4.3 | 0.00 | 0.32 | 0.32 | 81 | 1010.8 |
| 20260505055026 | 45 | 242 | 1.7 | 4.3 | 0.00 | 0.32 | 0.32 | 81 | 1010.8 |
| 20260505054922 | 45 | 242 | 1.7 | 4.3 | 0.00 | 0.32 | 0.32 | 81 | 1010.8 |
| 20260505054823 | 45 | 274 | 1.7 | 4.3 | 0.00 | 0.32 | 0.32 | 82 | 1011.2 |
| 20260505054722 | 45 | 139 | 1.7 | 4.3 | 0.00 | 0.32 | 0.32 | 81 | 1011.2 |
| 20260505054620 | 45 | 140 | 1.7 | 4.3 | 0.00 | 0.32 | 0.32 | 81 | 1011.2 |
| 20260505054556 | 45 | 140 | 1.7 | 4.3 | 0.00 | 0.32 | 0.32 | 82 | 1011.2 |
| 20260505054520 | 45 | 284 | 1.7 | 4.3 | 0.00 | 0.32 | 0.32 | 81 | 1011.2 |
| 20260505054412 | 45 | 317 | 1.7 | 4.3 | 0.00 | 0.32 | 0.32 | 81 | 1011.2 |
| 20260505054345 | 44 | 296 | 1.7 | 3.5 | 0.00 | 0.32 | 0.32 | 81 | 1011.2 |
| 20260505054312 | 45 | 216 | 1.7 | 3.5 | 0.00 | 0.32 | 0.32 | 81 | 1011.2 |
| 20260505054229 | 44 | 14 | 1.7 | 2.6 | 0.00 | 0.32 | 0.32 | 81 | 1011.2 |
| 20260505054225 | 45 | 237 | 1.7 | 3.5 | 0.00 | 0.32 | 0.32 | 81 | 1011.2 |
| 20260505054220 | 45 | 300 | 1.7 | 3.5 | 0.00 | 0.32 | 0.32 | 81 | 1011.2 |
| 20260505053910 | 44 | 14 | 1.7 | 2.6 | 0.00 | 0.32 | 0.32 | 81 | 1011.2 |
| 20260505053807 | 44 | 14 | 1.7 | 3.5 | 0.00 | 0.32 | 0.32 | 81 | 1011.2 |
| 20260505053658 | 44 | 14 | 1.7 | 3.5 | 0.00 | 0.32 | 0.32 | 81 | 1011.2 |
| 20260505053557 | 44 | 302 | 1.7 | 3.5 | 0.00 | 0.32 | 0.32 | 81 | 1011.2 |
| 20260505053546 | 44 | 302 | 1.7 | 3.5 | 0.00 | 0.32 | 0.32 | 81 | 1011.2 |
| 20260505053542 | 44 | 302 | 1.7 | 3.5 | 0.00 | 0.32 | 0.32 | 81 | 1011.2 |
| 20260505053229 | 44 | 302 | 1.7 | 3.5 | 0.00 | 0.32 | 0.32 | 81 | 1011.4 |
| 20260505053133 | 44 | 302 | 1.7 | 3.5 | 0.00 | 0.32 | 0.32 | 81 | 1011.4 |
| 20260505053124 | 44 | 302 | 1.7 | 3.5 | 0.00 | 0.32 | 0.32 | 81 | 1011.4 |
| 20260505052912 | 44 | 301 | 1.7 | 3.5 | 0.00 | 0.32 | 0.32 | 81 | 1011.4 |
| 20260505052809 | 44 | 302 | 1.7 | 3.5 | 0.00 | 0.32 | 0.32 | 81 | 1011.4 |
| 20260505052707 | 44 | 304 | 1.7 | 3.5 | 0.00 | 0.32 | 0.32 | 81 | 1011.4 |
| 20260505052607 | 44 | 216 | 1.7 | 3.5 | 0.00 | 0.32 | 0.32 | 81 | 1011.4 |
| 20260505052551 | 44 | 216 | 1.7 | 3.5 | 0.00 | 0.32 | 0.32 | 81 | 1011.4 |
| 20260505052505 | 44 | 214 | 1.7 | 3.5 | 0.00 | 0.32 | 0.32 | 81 | 1011.4 |
| 20260505052405 | 44 | 245 | 1.7 | 3.5 | 0.00 | 0.32 | 0.32 | 81 | 1011.4 |
| 20260505052323 | 44 | 245 | 1.7 | 3.5 | 0.00 | 0.32 | 0.32 | 81 | 1011.4 |
| 20260505052319 | 44 | 245 | 1.7 | 3.5 | 0.00 | 0.32 | 0.32 | 81 | 1011.4 |
| 20260505052315 | 44 | 245 | 1.7 | 3.5 | 0.00 | 0.32 | 0.32 | 81 | 1011.4 |
| 20260505052051 | 44 | 244 | 1.7 | 3.5 | 0.00 | 0.32 | 0.32 | 81 | 1011.4 |
| 20260505052005 | 44 | 244 | 2.6 | 3.5 | 0.00 | 0.32 | 0.32 | 81 | 1011.4 |
| 20260505051905 | 44 | 247 | 2.6 | 4.3 | 0.00 | 0.32 | 0.32 | 81 | 1011.4 |
| 20260505051805 | 44 | 210 | 2.6 | 4.3 | 0.00 | 0.32 | 0.32 | 81 | 1011.2 |
| 20260505051705 | 44 | 210 | 2.6 | 4.3 | 0.00 | 0.32 | 0.32 | 81 | 1011.2 |
| 20260505051548 | 44 | 209 | 2.6 | 6.1 | 0.00 | 0.32 | 0.32 | 81 | 1011.2 |
| 20260505051452 | 44 | 211 | 2.6 | 6.1 | 0.00 | 0.32 | 0.32 | 81 | 1011.2 |
| 20260505051340 | 44 | 153 | 2.6 | 6.1 | 0.00 | 0.32 | 0.32 | 81 | 1011.2 |
| 20260505051237 | 44 | 245 | 2.6 | 6.1 | 0.00 | 0.32 | 0.32 | 81 | 1011.2 |
| 20260505051138 | 44 | 245 | 2.6 | 7.8 | 0.00 | 0.32 | 0.32 | 81 | 1011.2 |
| 20260505051046 | 44 | 245 | 2.6 | 7.8 | 0.00 | 0.32 | 0.32 | 81 | 1011.2 |
| 20260505051032 | 44 | 246 | 2.6 | 7.8 | 0.00 | 0.32 | 0.32 | 81 | 1011.2 |
| 20260505050930 | 44 | 239 | 1.7 | 7.8 | 0.00 | 0.32 | 0.32 | 81 | 1011.2 |
| 20260505050827 | 44 | 173 | 1.7 | 7.8 | 0.00 | 0.32 | 0.32 | 81 | 1011.2 |
| 20260505050728 | 44 | 205 | 1.7 | 7.8 | 0.00 | 0.32 | 0.32 | 81 | 1011.2 |
| 20260505050636 | 44 | 274 | 1.7 | 7.8 | 0.00 | 0.32 | 0.32 | 81 | 1011.2 |
| 20260505050632 | 44 | 272 | 1.7 | 7.8 | 0.00 | 0.32 | 0.32 | 81 | 1011.2 |
| 20260505050627 | 44 | 302 | 1.7 | 7.8 | 0.00 | 0.32 | 0.32 | 81 | 1011.2 |
| 20260505050422 | 44 | 287 | 1.7 | 7.8 | 0.00 | 0.32 | 0.32 | 81 | 1011.2 |
| 20260505050323 | 44 | 224 | 1.7 | 7.8 | 0.00 | 0.32 | 0.32 | 81 | 1011.1 |
| 20260505050222 | 44 | 300 | 1.7 | 7.8 | 0.00 | 0.32 | 0.32 | 81 | 1011.1 |
| 20260505050122 | 44 | 290 | 1.7 | 5.2 | 0.00 | 0.32 | 0.32 | 81 | 1011.1 |
| 20260505041757 | 44 | 229 | 3.5 | 7.0 | 0.03 | 0.32 | 0.32 | 81 | 1010.9 |
| 20260505041752 | 44 | 284 | 3.5 | 8.7 | 0.01 | 0.32 | 0.32 | 81 | 1010.9 |
| 20260505041629 | 44 | 295 | 3.5 | 7.8 | 0.03 | 0.32 | 0.32 | 81 | 1010.9 |
| 20260505041447 | 43 | 303 | 3.5 | 7.0 | 0.03 | 0.32 | 0.32 | 81 | 1010.9 |
| 20260505041348 | 43 | 300 | 3.5 | 7.0 | 0.03 | 0.32 | 0.32 | 81 | 1010.9 |
| 20260505041247 | 43 | 254 | 3.5 | 7.0 | 0.03 | 0.32 | 0.32 | 81 | 1010.9 |
| 20260505041145 | 43 | 282 | 3.5 | 7.0 | 0.03 | 0.32 | 0.32 | 81 | 1010.9 |
| 20260505041032 | 43 | 292 | 3.5 | 7.8 | 0.03 | 0.32 | 0.32 | 81 | 1010.9 |
| 20260505041024 | 43 | 298 | 3.5 | 7.8 | 0.03 | 0.32 | 0.32 | 81 | 1010.9 |
| 20260505040942 | 43 | 267 | 3.5 | 7.8 | 0.03 | 0.32 | 0.32 | 81 | 1010.9 |
| 20260505040938 | 43 | 271 | 3.5 | 7.8 | 0.03 | 0.32 | 0.32 | 81 | 1010.9 |
| 20260505040755 | 43 | 288 | 3.5 | 7.8 | 0.04 | 0.32 | 0.32 | 81 | 1010.9 |
| 20260505040743 | 43 | 250 | 3.5 | 7.8 | 0.04 | 0.32 | 0.32 | 81 | 1010.9 |
| 20260505040739 | 43 | 274 | 3.5 | 7.8 | 0.03 | 0.32 | 0.32 | 81 | 1010.9 |
| 20260505040628 | 43 | 266 | 3.5 | 7.8 | 0.04 | 0.32 | 0.32 | 81 | 1010.9 |
| 20260505040432 | 43 | 250 | 3.5 | 7.8 | 0.04 | 0.32 | 0.32 | 81 | 1010.9 |
| 20260505040332 | 43 | 265 | 3.5 | 7.8 | 0.04 | 0.32 | 0.32 | 81 | 1010.9 |
| 20260505040254 | 44 | 271 | 3.5 | 7.0 | 0.04 | 0.32 | 0.32 | 81 | 1011.1 |
| 20260505040250 | 44 | 301 | 3.5 | 7.0 | 0.05 | 0.32 | 0.32 | 81 | 1011.1 |
| 20260505040246 | 43 | 241 | 3.5 | 7.8 | 0.04 | 0.32 | 0.32 | 81 | 1011.1 |
| 20260505040240 | 43 | 311 | 3.5 | 7.8 | 0.04 | 0.32 | 0.32 | 81 | 1011.1 |
| 20260505035825 | 44 | 292 | 3.5 | 6.1 | 0.05 | 0.32 | 0.32 | 81 | 1011.1 |
| 20260505035724 | 44 | 295 | 3.5 | 6.1 | 0.05 | 0.32 | 0.32 | 81 | 1011.1 |
| 20260505035625 | 44 | 312 | 3.5 | 5.2 | 0.05 | 0.32 | 0.32 | 81 | 1011.1 |
| 20260505035524 | 44 | 304 | 3.5 | 12.2 | 0.05 | 0.32 | 0.32 | 81 | 1011.1 |
| 20260505035514 | 44 | 263 | 3.5 | 12.2 | 0.06 | 0.32 | 0.32 | 81 | 1011.1 |
| 20260505035310 | 44 | 277 | 3.5 | 12.2 | 0.07 | 0.32 | 0.32 | 81 | 1011.1 |
| 20260505035220 | 44 | 286 | 3.5 | 12.2 | 0.07 | 0.32 | 0.32 | 81 | 1011.1 |
| 20260505035215 | 44 | 269 | 3.5 | 12.2 | 0.07 | 0.32 | 0.32 | 81 | 1011.1 |
| 20260505035022 | 44 | 305 | 3.5 | 12.2 | 0.07 | 0.32 | 0.32 | 81 | 1011.1 |
| 20260505035009 | 44 | 301 | 3.5 | 12.2 | 0.07 | 0.32 | 0.32 | 81 | 1011.1 |
| 20260505034910 | 44 | 259 | 3.5 | 12.2 | 0.07 | 0.32 | 0.32 | 81 | 1011.1 |
| 20260505034823 | 44 | 301 | 3.5 | 12.2 | 0.07 | 0.32 | 0.32 | 81 | 1010.5 |
| 20260505034819 | 45 | 292 | 3.5 | 7.0 | 0.07 | 0.32 | 0.32 | 81 | 1010.5 |
| 20260505034815 | 44 | 255 | 3.5 | 12.2 | 0.07 | 0.32 | 0.32 | 81 | 1010.5 |
| 20260505034626 | 45 | 275 | 3.5 | 12.2 | 0.07 | 0.32 | 0.32 | 81 | 1010.5 |
| 20260505034510 | 45 | 291 | 3.5 | 7.0 | 0.07 | 0.32 | 0.32 | 81 | 1010.5 |
| 20260505034409 | 45 | 305 | 3.5 | 7.8 | 0.07 | 0.32 | 0.32 | 81 | 1010.5 |
| 20260505034310 | 45 | 257 | 3.5 | 7.8 | 0.07 | 0.32 | 0.32 | 81 | 1010.5 |
| 20260505034209 | 45 | 289 | 3.5 | 7.8 | 0.07 | 0.32 | 0.32 | 81 | 1010.5 |
| 20260505034110 | 45 | 313 | 3.5 | 7.8 | 0.07 | 0.32 | 0.32 | 81 | 1010.5 |
| 20260505034009 | 45 | 256 | 3.5 | 7.8 | 0.07 | 0.32 | 0.32 | 81 | 1010.5 |
| 20260505033917 | 45 | 283 | 1.7 | 7.8 | 0.07 | 0.32 | 0.32 | 81 | 1010.5 |
| 20260505033913 | 45 | 313 | 1.7 | 7.8 | 0.07 | 0.32 | 0.32 | 81 | 1010.5 |
| 20260505033707 | 46 | 249 | 1.7 | 7.8 | 0.07 | 0.32 | 0.32 | 81 | 1010.5 |
| 20260505033607 | 46 | 286 | 1.7 | 7.8 | 0.07 | 0.32 | 0.32 | 81 | 1010.5 |
| 20260505033520 | 46 | 32 | 1.7 | 7.8 | 0.07 | 0.32 | 0.32 | 81 | 1010.5 |
| 20260505033505 | 46 | 307 | 1.7 | 7.8 | 0.07 | 0.32 | 0.32 | 81 | 1010.5 |
| 20260505033402 | 46 | 272 | 1.7 | 7.0 | 0.07 | 0.32 | 0.32 | 81 | 1010.5 |
| 20260505033302 | 46 | 273 | 1.7 | 7.0 | 0.07 | 0.32 | 0.32 | 81 | 1010.4 |
| 20260505033211 | 46 | 42 | 1.7 | 3.5 | 0.07 | 0.32 | 0.32 | 81 | 1010.4 |
| 20260505033207 | 46 | 330 | 1.7 | 7.0 | 0.07 | 0.32 | 0.32 | 81 | 1010.4 |
| 20260505033002 | 46 | 280 | 1.7 | 2.6 | 0.07 | 0.32 | 0.32 | 81 | 1010.4 |
| 20260505032857 | 46 | 280 | 1.7 | 3.5 | 0.07 | 0.32 | 0.32 | 81 | 1010.4 |
| 20260505032757 | 46 | 279 | 1.7 | 3.5 | 0.07 | 0.32 | 0.32 | 81 | 1010.4 |
| 20260505032657 | 46 | 279 | 1.7 | 3.5 | 0.07 | 0.32 | 0.32 | 81 | 1010.4 |
| 20260505032554 | 46 | 279 | 1.7 | 3.5 | 0.07 | 0.32 | 0.32 | 81 | 1010.4 |
| 20260505032518 | 46 | 279 | 1.7 | 3.5 | 0.07 | 0.32 | 0.32 | 81 | 1010.4 |
| 20260505032446 | 46 | 279 | 1.7 | 3.5 | 0.07 | 0.32 | 0.32 | 81 | 1010.4 |
| 20260505032314 | 46 | 279 | 1.7 | 3.5 | 0.07 | 0.32 | 0.32 | 81 | 1010.4 |
| 20260505032212 | 46 | 279 | 1.7 | 3.5 | 0.07 | 0.32 | 0.32 | 80 | 1010.4 |
| 20260505032110 | 46 | 279 | 1.7 | 3.5 | 0.06 | 0.31 | 0.32 | 81 | 1010.4 |
| 20260505032009 | 46 | 279 | 1.7 | 3.5 | 0.06 | 0.31 | 0.31 | 81 | 1010.4 |
| 20260505031956 | 46 | 279 | 1.7 | 3.5 | 0.06 | 0.31 | 0.31 | 81 | 1010.4 |
| 20260505031859 | 46 | 270 | 1.7 | 3.5 | 0.06 | 0.31 | 0.31 | 81 | 1010.4 |
| 20260505031854 | 46 | 271 | 1.7 | 3.5 | 0.06 | 0.31 | 0.31 | 81 | 1010.7 |
| 20260505031648 | 46 | 271 | 1.7 | 3.5 | 0.05 | 0.30 | 0.31 | 81 | 1010.7 |
| 20260505031547 | 46 | 322 | 1.7 | 3.5 | 0.04 | 0.29 | 0.30 | 81 | 1010.7 |
| 20260505031509 | 46 | 322 | 1.7 | 3.5 | 0.04 | 0.29 | 0.30 | 81 | 1010.7 |
| 20260505031428 | 45 | 322 | 1.7 | 3.5 | 0.04 | 0.29 | 0.29 | 80 | 1010.7 |
| 20260505031322 | 45 | 322 | 1.7 | 3.5 | 0.04 | 0.29 | 0.29 | 81 | 1010.7 |
| 20260505031220 | 45 | 322 | 1.7 | 3.5 | 0.04 | 0.29 | 0.29 | 80 | 1010.7 |
| 20260505031119 | 45 | 322 | 1.7 | 2.6 | 0.04 | 0.29 | 0.29 | 80 | 1010.7 |
| 20260505031009 | 45 | 322 | 1.7 | 3.5 | 0.04 | 0.29 | 0.29 | 80 | 1010.7 |
| 20260505030914 | 45 | 287 | 1.7 | 3.5 | 0.04 | 0.29 | 0.29 | 81 | 1010.7 |
| 20260505030805 | 45 | 286 | 1.7 | 3.5 | 0.04 | 0.29 | 0.29 | 81 | 1010.7 |
| 20260505030705 | 45 | 286 | 1.7 | 3.5 | 0.04 | 0.29 | 0.29 | 81 | 1010.7 |
| 20260505030600 | 45 | 286 | 1.7 | 3.5 | 0.03 | 0.28 | 0.28 | 81 | 1010.7 |
| 20260505030508 | 45 | 286 | 1.7 | 3.5 | 0.03 | 0.28 | 0.28 | 81 | 1010.7 |
| 20260505030459 | 45 | 286 | 1.7 | 3.5 | 0.03 | 0.28 | 0.28 | 81 | 1010.7 |
| 20260505030352 | 45 | 286 | 1.7 | 3.5 | 0.03 | 0.28 | 0.28 | 81 | 1010.7 |
| 20260505030252 | 45 | 286 | 1.7 | 3.5 | 0.03 | 0.28 | 0.28 | 81 | 1011.2 |
| 20260505030239 | 45 | 271 | 1.7 | 5.2 | 0.03 | 0.28 | 0.28 | 81 | 1011.2 |
| 20260505030152 | 45 | 287 | 1.7 | 3.5 | 0.03 | 0.28 | 0.28 | 81 | 1011.2 |
| 20260505030114 | 45 | 286 | 1.7 | 4.3 | 0.03 | 0.28 | 0.28 | 81 | 1011.2 |
| 20260505025957 | 45 | 270 | 2.6 | 5.2 | 0.03 | 0.27 | 0.27 | 81 | 1011.2 |
| 20260505025953 | 45 | 272 | 2.6 | 5.2 | 0.03 | 0.27 | 0.28 | 81 | 1011.2 |
| 20260505025740 | 45 | 80 | 2.6 | 5.2 | 0.03 | 0.27 | 0.27 | 81 | 1011.2 |